Time,TemperatureF,DewpointF,PressureIn,WindDirection,WindDirectionDegrees,WindSpeedMPH,WindSpeedGustMPH,Humidity,HourlyPrecipIn,Conditions,Clouds,dailyrainin,SolarRadiationWatts/m^2,SoftwareType,DateUTC
2013-03-07 00:00:00,34.7,28.9,29.93,North,360,6.0,8.0,79,0.00,,---,0.00,0.00,VWS V14.01,2013-03-07 05:00:00,
2013-03-07 00:05:00,34.6,29.1,29.93,ENE,71,0.0,5.0,80,0.00,,---,0.00,0.00,VWS V14.01,2013-03-07 05:05:00,
2013-03-07 00:10:00,34.5,29.0,29.93,SE,140,3.0,8.0,80,0.00,,---,0.00,0.00,VWS V14.01,2013-03-07 05:10:00,
2013-03-07 00:15:00,34.3,29.4,29.93,NE,34,2.0,9.0,82,0.00,,---,0.00,0.00,VWS V14.01,2013-03-07 05:15:00,
2013-03-07 00:20:00,34.0,29.4,29.93,NNE,29,3.0,9.0,83,0.00,,---,0.00,0.00,VWS V14.01,2013-03-07 05:20:00,
2013-03-07 00:25:00,33.8,29.8,29.93,North,5,2.0,7.0,85,0.00,,---,0.00,0.00,VWS V14.01,2013-03-07 05:25:00,
2013-03-07 00:26:00,33.8,29.8,29.93,NE,48,2.0,7.0,85,0.00,,---,0.00,0.00,VWS V14.01,2013-03-07 05:26:00,
2013-03-07 00:30:00,33.6,29.9,29.93,North,360,2.0,7.0,86,0.00,,---,0.00,0.00,VWS V14.01,2013-03-07 05:30:00,
2013-03-07 00:31:00,33.6,29.9,29.93,North,355,4.0,7.0,86,0.00,,---,0.00,0.00,VWS V14.01,2013-03-07 05:31:00,
2013-03-07 00:35:00,33.4,29.7,29.92,North,10,2.0,11.0,86,0.00,,---,0.00,0.00,VWS V14.01,2013-03-07 05:35:00,
2013-03-07 00:36:00,33.4,29.7,29.92,North,10,3.0,11.0,86,0.00,,---,0.00,0.00,VWS V14.01,2013-03-07 05:36:00,
2013-03-07 00:41:00,33.3,29.6,29.93,NW,321,5.0,11.0,86,0.00,,---,0.00,0.00,VWS V14.01,2013-03-07 05:41:00,
2013-03-07 00:46:00,33.3,29.3,29.93,NE,39,1.0,4.0,85,0.00,,---,0.00,0.00,VWS V14.01,2013-03-07 05:46:00,
2013-03-07 00:51:00,33.4,29.1,29.93,SE,128,4.0,9.0,84,0.00,,---,0.00,0.00,VWS V14.01,2013-03-07 05:51:00,
2013-03-07 00:56:00,33.5,29.2,29.93,NE,55,0.0,5.0,84,0.00,,---,0.00,0.00,VWS V14.01,2013-03-07 05:56:00,
2013-03-07 01:01:00,33.6,29.0,29.93,NNE,21,6.0,8.0,83,0.00,,---,0.00,0.00,VWS V14.01,2013-03-07 06:01:00,
2013-03-07 01:02:00,33.6,29.0,29.93,North,351,3.0,8.0,83,0.00,,---,0.00,0.00,VWS V14.01,2013-03-07 06:02:00,
2013-03-07 01:06:00,33.8,28.9,29.93,NE,42,3.0,14.0,82,0.00,,---,0.00,0.00,VWS V14.01,2013-03-07 06:06:00,
2013-03-07 01:07:00,33.8,28.9,29.93,North,5,8.0,14.0,82,0.00,,---,0.00,0.00,VWS V14.01,2013-03-07 06:07:00,
2013-03-07 01:11:00,33.9,29.0,29.93,North,360,2.0,14.0,82,0.00,,---,0.00,0.00,VWS V14.01,2013-03-07 06:11:00,
2013-03-07 01:12:00,33.9,29.0,29.93,NE,39,1.0,14.0,82,0.00,,---,0.00,0.00,VWS V14.01,2013-03-07 06:12:00,
2013-03-07 01:16:00,33.9,29.0,29.93,North,360,4.0,13.0,82,0.00,,---,0.00,0.00,VWS V14.01,2013-03-07 06:16:00,
2013-03-07 01:17:00,33.9,29.0,29.93,NNE,27,0.0,13.0,82,0.00,,---,0.00,0.00,VWS V14.01,2013-03-07 06:17:00,
2013-03-07 01:21:00,33.8,29.2,29.93,NNW,336,4.0,13.0,83,0.00,,---,0.00,0.00,VWS V14.01,2013-03-07 06:21:00,
2013-03-07 01:22:00,33.8,29.2,29.93,North,355,3.0,3.0,83,0.00,,---,0.00,0.00,VWS V14.01,2013-03-07 06:22:00,
2013-03-07 01:26:00,33.7,29.1,29.93,North,11,4.0,6.0,83,0.00,,---,0.00,0.00,VWS V14.01,2013-03-07 06:26:00,
2013-03-07 01:27:00,33.7,29.1,29.93,North,355,8.0,10.0,83,0.00,,---,0.00,0.00,VWS V14.01,2013-03-07 06:27:00,
2013-03-07 01:31:00,33.7,29.1,29.93,North,355,6.0,14.0,83,0.00,,---,0.00,0.00,VWS V14.01,2013-03-07 06:31:00,
2013-03-07 01:32:00,33.6,29.0,29.93,NNW,347,5.0,14.0,83,0.00,,---,0.00,0.00,VWS V14.01,2013-03-07 06:32:00,
2013-03-07 01:33:00,33.6,29.0,29.93,North,355,3.0,4.0,83,0.00,,---,0.00,0.00,VWS V14.01,2013-03-07 06:33:00,
2013-03-07 01:36:00,33.6,29.3,29.93,ENE,75,3.0,8.0,84,0.00,,---,0.00,0.00,VWS V14.01,2013-03-07 06:36:00,
2013-03-07 01:37:00,33.6,29.3,29.93,East,84,2.0,8.0,84,0.00,,---,0.00,0.00,VWS V14.01,2013-03-07 06:37:00,
2013-03-07 01:38:00,33.5,29.2,29.93,ENE,65,3.0,9.0,84,0.00,,---,0.00,0.00,VWS V14.01,2013-03-07 06:38:00,
2013-03-07 01:42:00,33.4,29.4,29.93,NNE,19,7.0,11.0,85,0.00,,---,0.00,0.00,VWS V14.01,2013-03-07 06:42:00,
2013-03-07 01:43:00,33.4,29.4,29.93,NNE,27,2.0,7.0,85,0.00,,---,0.00,0.00,VWS V14.01,2013-03-07 06:43:00,
2013-03-07 01:47:00,33.2,29.2,29.93,NE,46,2.0,8.0,85,0.00,,---,0.00,0.00,VWS V14.01,2013-03-07 06:47:00,
2013-03-07 01:48:00,33.2,29.2,29.93,NE,49,1.0,8.0,85,0.00,,---,0.00,0.00,VWS V14.01,2013-03-07 06:48:00,
2013-03-07 01:52:00,33.1,29.4,29.93,NNE,17,3.0,10.0,86,0.00,,---,0.00,0.00,VWS V14.01,2013-03-07 06:52:00,
2013-03-07 01:53:00,33.0,29.3,29.93,ENE,74,3.0,4.0,86,0.00,,---,0.00,0.00,VWS V14.01,2013-03-07 06:53:00,
2013-03-07 01:57:00,33.0,29.3,29.93,NE,40,4.0,12.0,86,0.00,,---,0.00,0.00,VWS V14.01,2013-03-07 06:57:00,
2013-03-07 01:58:00,32.9,29.5,29.93,NNW,340,5.0,12.0,87,0.00,,---,0.00,0.00,VWS V14.01,2013-03-07 06:58:00,
2013-03-07 02:02:00,32.9,29.5,29.93,North,355,5.0,12.0,87,0.00,,---,0.00,0.00,VWS V14.01,2013-03-07 07:02:00,
2013-03-07 02:03:00,32.8,29.4,29.93,NNW,338,0.0,5.0,87,0.00,,---,0.00,0.00,VWS V14.01,2013-03-07 07:03:00,
2013-03-07 02:07:00,32.8,29.1,29.92,North,355,8.0,11.0,86,0.00,,---,0.00,0.00,VWS V14.01,2013-03-07 07:07:00,
2013-03-07 02:08:00,32.8,29.1,29.92,North,355,5.0,11.0,86,0.00,,---,0.00,0.00,VWS V14.01,2013-03-07 07:08:00,
2013-03-07 02:12:00,32.9,28.9,29.92,NE,38,2.0,11.0,85,0.00,,---,0.00,0.00,VWS V14.01,2013-03-07 07:12:00,
2013-03-07 02:13:00,32.8,28.8,29.92,NNE,14,4.0,7.0,85,0.00,,---,0.00,0.00,VWS V14.01,2013-03-07 07:13:00,
2013-03-07 02:14:00,32.8,28.8,29.92,NNE,32,2.0,7.0,85,0.00,,---,0.00,0.00,VWS V14.01,2013-03-07 07:14:00,
2013-03-07 02:17:00,32.9,28.9,29.92,NNW,336,3.0,7.0,85,0.00,,---,0.00,0.00,VWS V14.01,2013-03-07 07:17:00,
2013-03-07 02:18:00,32.9,28.9,29.92,NNE,24,2.0,7.0,85,0.00,,---,0.00,0.00,VWS V14.01,2013-03-07 07:18:00,
2013-03-07 02:19:00,32.9,28.9,29.92,North,5,0.0,7.0,85,0.00,,---,0.00,0.00,VWS V14.01,2013-03-07 07:19:00,
2013-03-07 02:22:00,32.9,28.9,29.92,NNE,14,4.0,5.0,85,0.00,,---,0.00,0.00,VWS V14.01,2013-03-07 07:22:00,
2013-03-07 02:23:00,33.0,28.7,29.92,North,9,5.0,6.0,84,0.00,,---,0.00,0.00,VWS V14.01,2013-03-07 07:23:00,
2013-03-07 02:24:00,33.0,28.7,29.92,NW,323,3.0,6.0,84,0.00,,---,0.00,0.00,VWS V14.01,2013-03-07 07:24:00,
2013-03-07 02:27:00,33.0,28.7,29.92,North,10,4.0,10.0,84,0.00,,---,0.00,0.00,VWS V14.01,2013-03-07 07:27:00,
2013-03-07 02:28:00,33.0,28.7,29.92,NNW,338,2.0,10.0,84,0.00,,---,0.00,0.00,VWS V14.01,2013-03-07 07:28:00,
2013-03-07 02:29:00,33.0,28.7,29.92,East,92,3.0,10.0,84,0.00,,---,0.00,0.00,VWS V14.01,2013-03-07 07:29:00,
2013-03-07 02:32:00,33.0,28.7,29.92,NNE,17,5.0,7.0,84,0.00,,---,0.00,0.00,VWS V14.01,2013-03-07 07:32:00,
2013-03-07 02:33:00,33.0,28.7,29.92,North,360,2.0,7.0,84,0.00,,---,0.00,0.00,VWS V14.01,2013-03-07 07:33:00,
2013-03-07 02:34:00,33.1,28.8,29.92,North,11,3.0,7.0,84,0.00,,---,0.00,0.00,VWS V14.01,2013-03-07 07:34:00,
2013-03-07 02:37:00,33.1,28.5,29.92,NE,46,2.0,7.0,83,0.00,,---,0.00,0.00,VWS V14.01,2013-03-07 07:37:00,
2013-03-07 02:39:00,33.1,28.5,29.92,NNE,29,1.0,8.0,83,0.00,,---,0.00,0.00,VWS V14.01,2013-03-07 07:39:00,
2013-03-07 02:43:00,33.1,28.5,29.92,North,9,4.0,9.0,83,0.00,,---,0.00,0.00,VWS V14.01,2013-03-07 07:43:00,
2013-03-07 02:45:00,33.2,28.6,29.92,ENE,71,2.0,9.0,83,0.00,,---,0.00,0.00,VWS V14.01,2013-03-07 07:45:00,
2013-03-07 02:48:00,33.2,28.6,29.92,NE,44,1.0,9.0,83,0.00,,---,0.00,0.00,VWS V14.01,2013-03-07 07:48:00,
2013-03-07 02:51:00,33.2,28.3,29.92,North,355,4.0,9.0,82,0.00,,---,0.00,0.00,VWS V14.01,2013-03-07 07:51:00,
2013-03-07 02:53:00,33.2,28.3,29.92,NNW,335,3.0,5.0,82,0.00,,---,0.00,0.00,VWS V14.01,2013-03-07 07:53:00,
2013-03-07 02:56:00,33.2,28.3,29.91,North,355,0.0,11.0,82,0.00,,---,0.00,0.00,VWS V14.01,2013-03-07 07:56:00,
2013-03-07 02:58:00,33.2,28.3,29.92,North,355,8.0,11.0,82,0.00,,---,0.00,0.00,VWS V14.01,2013-03-07 07:58:00,
2013-03-07 03:01:00,33.3,28.4,29.91,NNE,31,1.0,11.0,82,0.00,,---,0.00,0.00,VWS V14.01,2013-03-07 08:01:00,
2013-03-07 03:03:00,33.3,28.4,29.92,ENE,72,2.0,7.0,82,0.00,,---,0.00,0.00,VWS V14.01,2013-03-07 08:03:00,
2013-03-07 03:04:00,33.3,28.4,29.92,East,92,0.0,7.0,82,0.00,,---,0.00,0.00,VWS V14.01,2013-03-07 08:04:00,
2013-03-07 03:06:00,33.2,28.3,29.91,NE,34,2.0,7.0,82,0.00,,---,0.00,0.00,VWS V14.01,2013-03-07 08:06:00,
2013-03-07 03:08:00,33.2,28.3,29.92,NE,49,1.0,10.0,82,0.00,,---,0.00,0.00,VWS V14.01,2013-03-07 08:08:00,
2013-03-07 03:09:00,33.2,28.3,29.92,NE,49,0.0,10.0,82,0.00,,---,0.00,0.00,VWS V14.01,2013-03-07 08:09:00,
2013-03-07 03:11:00,33.2,28.3,29.92,ENE,72,0.0,10.0,82,0.00,,---,0.00,0.00,VWS V14.01,2013-03-07 08:11:00,
2013-03-07 03:14:00,33.2,28.3,29.92,NNW,329,3.0,9.0,82,0.00,,---,0.00,0.00,VWS V14.01,2013-03-07 08:14:00,
2013-03-07 03:16:00,33.2,28.3,29.92,NNW,333,5.0,9.0,82,0.00,,---,0.00,0.00,VWS V14.01,2013-03-07 08:16:00,
2013-03-07 03:19:00,33.2,28.3,29.92,North,5,6.0,9.0,82,0.00,,---,0.00,0.00,VWS V14.01,2013-03-07 08:19:00,
2013-03-07 03:21:00,33.2,28.0,29.92,ENE,76,1.0,9.0,81,0.00,,---,0.00,0.00,VWS V14.01,2013-03-07 08:21:00,
2013-03-07 03:24:00,33.2,27.7,29.91,NE,43,5.0,9.0,80,0.00,,---,0.00,0.00,VWS V14.01,2013-03-07 08:24:00,
2013-03-07 03:26:00,33.2,27.7,29.92,NE,38,2.0,9.0,80,0.00,,---,0.00,0.00,VWS V14.01,2013-03-07 08:26:00,
2013-03-07 03:29:00,33.2,27.7,29.92,NNE,12,6.0,9.0,80,0.00,,---,0.00,0.00,VWS V14.01,2013-03-07 08:29:00,
2013-03-07 03:31:00,33.3,27.5,29.92,ENE,58,1.0,9.0,79,0.00,,---,0.00,0.00,VWS V14.01,2013-03-07 08:31:00,
2013-03-07 03:34:00,33.3,27.5,29.92,NE,49,2.0,10.0,79,0.00,,---,0.00,0.00,VWS V14.01,2013-03-07 08:34:00,
2013-03-07 03:36:00,33.3,27.5,29.92,NNW,335,4.0,10.0,79,0.00,,---,0.00,0.00,VWS V14.01,2013-03-07 08:36:00,
2013-03-07 03:39:00,33.4,27.6,29.92,NE,36,3.0,10.0,79,0.00,,---,0.00,0.00,VWS V14.01,2013-03-07 08:39:00,
2013-03-07 03:41:00,33.4,27.6,29.93,North,349,2.0,10.0,79,0.00,,---,0.00,0.00,VWS V14.01,2013-03-07 08:41:00,
2013-03-07 03:44:00,33.4,27.6,29.93,NNW,337,3.0,9.0,79,0.00,,---,0.00,0.00,VWS V14.01,2013-03-07 08:44:00,
2013-03-07 03:46:00,33.4,27.3,29.93,NE,46,1.0,10.0,78,0.00,,---,0.00,0.00,VWS V14.01,2013-03-07 08:46:00,
2013-03-07 03:49:00,33.4,27.6,29.93,NNE,32,3.0,10.0,79,0.00,,---,0.00,0.00,VWS V14.01,2013-03-07 08:49:00,
2013-03-07 03:51:00,33.4,27.3,29.93,North,355,4.0,11.0,78,0.00,,---,0.00,0.00,VWS V14.01,2013-03-07 08:51:00,
2013-03-07 03:54:00,33.4,27.3,29.93,East,84,2.0,4.0,78,0.00,,---,0.00,0.00,VWS V14.01,2013-03-07 08:54:00,
2013-03-07 03:56:00,33.5,27.4,29.93,East,96,3.0,10.0,78,0.00,,---,0.00,0.00,VWS V14.01,2013-03-07 08:56:00,
2013-03-07 03:59:00,33.5,27.4,29.93,North,355,5.0,10.0,78,0.00,,---,0.00,0.00,VWS V14.01,2013-03-07 08:59:00,
2013-03-07 04:02:00,33.5,27.4,29.93,North,5,4.0,10.0,78,0.00,,---,0.00,0.00,VWS V14.01,2013-03-07 09:02:00,
2013-03-07 04:04:00,33.5,27.4,29.94,NE,43,2.0,5.0,78,0.00,,---,0.00,0.00,VWS V14.01,2013-03-07 09:04:00,
2013-03-07 04:07:00,33.5,27.1,29.94,NNW,340,4.0,10.0,77,0.00,,---,0.00,0.00,VWS V14.01,2013-03-07 09:07:00,
2013-03-07 04:09:00,33.5,27.1,29.94,NE,47,4.0,12.0,77,0.00,,---,0.00,0.00,VWS V14.01,2013-03-07 09:09:00,
2013-03-07 04:12:00,33.5,27.1,29.94,North,360,4.0,4.0,77,0.00,,---,0.00,0.00,VWS V14.01,2013-03-07 09:12:00,
2013-03-07 04:14:00,33.5,27.4,29.94,North,9,4.0,8.0,78,0.00,,---,0.00,0.00,VWS V14.01,2013-03-07 09:14:00,
2013-03-07 04:17:00,33.5,27.4,29.94,North,5,4.0,10.0,78,0.00,,---,0.00,0.00,VWS V14.01,2013-03-07 09:17:00,
2013-03-07 04:19:00,33.5,27.1,29.94,NE,34,2.0,10.0,77,0.00,,---,0.00,0.00,VWS V14.01,2013-03-07 09:19:00,
2013-03-07 04:22:00,33.5,27.4,29.95,NE,50,1.0,1.0,78,0.00,,---,0.00,0.00,VWS V14.01,2013-03-07 09:22:00,
2013-03-07 04:24:00,33.4,27.3,29.95,NNE,31,5.0,10.0,78,0.00,,---,0.00,0.00,VWS V14.01,2013-03-07 09:24:00,
2013-03-07 04:27:00,33.5,27.1,29.94,NE,34,4.0,10.0,77,0.00,,---,0.00,0.00,VWS V14.01,2013-03-07 09:27:00,
2013-03-07 04:29:00,33.4,27.0,29.95,NE,51,4.0,10.0,77,0.00,,---,0.00,0.00,VWS V14.01,2013-03-07 09:29:00,
2013-03-07 04:32:00,33.4,27.0,29.95,NNE,26,1.0,2.0,77,0.00,,---,0.00,0.00,VWS V14.01,2013-03-07 09:32:00,
2013-03-07 04:34:00,33.5,27.1,29.95,NNW,344,3.0,11.0,77,0.00,,---,0.00,0.00,VWS V14.01,2013-03-07 09:34:00,
2013-03-07 04:37:00,33.5,27.1,29.95,East,101,9.0,11.0,77,0.00,,---,0.00,0.00,VWS V14.01,2013-03-07 09:37:00,
2013-03-07 04:40:00,33.5,27.1,29.95,NNW,331,6.0,11.0,77,0.00,,---,0.00,0.00,VWS V14.01,2013-03-07 09:40:00,
2013-03-07 04:42:00,33.5,27.1,29.95,NNW,345,4.0,4.0,77,0.00,,---,0.00,0.00,VWS V14.01,2013-03-07 09:42:00,
2013-03-07 04:45:00,33.5,26.8,29.95,NNE,28,4.0,8.0,76,0.00,,---,0.00,0.00,VWS V14.01,2013-03-07 09:45:00,
2013-03-07 04:47:00,33.5,27.1,29.95,North,5,6.0,8.0,77,0.00,,---,0.00,0.00,VWS V14.01,2013-03-07 09:47:00,
2013-03-07 04:50:00,33.5,26.8,29.95,NE,37,4.0,8.0,76,0.00,,---,0.00,0.00,VWS V14.01,2013-03-07 09:50:00,
2013-03-07 04:52:00,33.5,27.1,29.95,North,9,1.0,2.0,77,0.00,,---,0.00,0.00,VWS V14.01,2013-03-07 09:52:00,
2013-03-07 04:55:00,33.5,27.1,29.95,NNE,32,3.0,7.0,77,0.00,,---,0.00,0.00,VWS V14.01,2013-03-07 09:55:00,
2013-03-07 04:57:00,33.5,27.1,29.95,North,360,1.0,8.0,77,0.00,,---,0.00,0.00,VWS V14.01,2013-03-07 09:57:00,
2013-03-07 05:00:00,33.4,27.0,29.95,ENE,63,2.0,8.0,77,0.00,,---,0.00,0.00,VWS V14.01,2013-03-07 10:00:00,
2013-03-07 05:02:00,33.4,27.0,29.95,East,86,1.0,5.0,77,0.00,,---,0.00,0.00,VWS V14.01,2013-03-07 10:02:00,
2013-03-07 05:05:00,33.4,27.0,29.95,NE,49,5.0,5.0,77,0.00,,---,0.00,0.00,VWS V14.01,2013-03-07 10:05:00,
2013-03-07 05:07:00,33.4,27.0,29.95,NW,314,3.0,9.0,77,0.00,,---,0.00,0.00,VWS V14.01,2013-03-07 10:07:00,
2013-03-07 05:10:00,33.4,27.0,29.95,North,5,4.0,9.0,77,0.00,,---,0.00,0.00,VWS V14.01,2013-03-07 10:10:00,
2013-03-07 05:13:00,33.4,26.7,29.96,North,11,6.0,7.0,76,0.00,,---,0.00,0.00,VWS V14.01,2013-03-07 10:13:00,
2013-03-07 05:15:00,33.4,26.7,29.95,NNW,339,5.0,13.0,76,0.00,,---,0.00,0.00,VWS V14.01,2013-03-07 10:15:00,
2013-03-07 05:18:00,33.4,26.7,29.95,NNE,14,3.0,13.0,76,0.00,,---,0.00,0.00,VWS V14.01,2013-03-07 10:18:00,
2013-03-07 05:20:00,33.4,26.3,29.95,North,9,3.0,13.0,75,0.00,,---,0.00,0.00,VWS V14.01,2013-03-07 10:20:00,
2013-03-07 05:23:00,33.5,26.4,29.95,North,11,0.0,3.0,75,0.00,,---,0.00,0.00,VWS V14.01,2013-03-07 10:23:00,
2013-03-07 05:25:00,33.5,26.8,29.95,NNW,332,2.0,5.0,76,0.00,,---,0.00,0.00,VWS V14.01,2013-03-07 10:25:00,
2013-03-07 05:28:00,33.4,26.7,29.95,NE,51,3.0,6.0,76,0.00,,---,0.00,0.00,VWS V14.01,2013-03-07 10:28:00,
2013-03-07 05:30:00,33.4,26.7,29.95,ENE,58,2.0,6.0,76,0.00,,---,0.00,0.00,VWS V14.01,2013-03-07 10:30:00,
2013-03-07 05:33:00,33.4,26.7,29.95,North,5,3.0,6.0,76,0.00,,---,0.00,0.00,VWS V14.01,2013-03-07 10:33:00,
2013-03-07 05:35:00,33.4,27.0,29.95,NNE,13,2.0,8.0,77,0.00,,---,0.00,0.00,VWS V14.01,2013-03-07 10:35:00,
2013-03-07 05:36:00,33.3,26.9,29.95,NNW,347,2.0,8.0,77,0.00,,---,0.00,0.00,VWS V14.01,2013-03-07 10:36:00,
2013-03-07 05:38:00,33.3,26.9,29.95,NNW,327,3.0,8.0,77,0.00,,---,0.00,0.00,VWS V14.01,2013-03-07 10:38:00,
2013-03-07 05:40:00,33.3,27.2,29.95,NNW,332,5.0,9.0,78,0.00,,---,0.00,0.00,VWS V14.01,2013-03-07 10:40:00,
2013-03-07 05:41:00,33.2,27.1,29.95,NW,324,3.0,9.0,78,0.00,,---,0.00,0.00,VWS V14.01,2013-03-07 10:41:00,
2013-03-07 05:44:00,33.2,27.1,29.95,NE,42,1.0,6.0,78,0.00,,---,0.00,0.00,VWS V14.01,2013-03-07 10:44:00,
2013-03-07 05:46:00,33.0,27.2,29.95,NNW,338,5.0,6.0,79,0.00,,---,0.00,0.00,VWS V14.01,2013-03-07 10:46:00,
2013-03-07 05:49:00,33.0,27.2,29.95,North,9,4.0,8.0,79,0.00,,---,0.00,0.00,VWS V14.01,2013-03-07 10:49:00,
2013-03-07 05:51:00,32.9,26.8,29.95,NNE,28,3.0,8.0,78,0.00,,---,0.00,0.00,VWS V14.01,2013-03-07 10:51:00,
2013-03-07 05:54:00,32.9,27.1,29.96,West,261,0.0,4.0,79,0.00,,---,0.00,0.00,VWS V14.01,2013-03-07 10:54:00,
2013-03-07 05:56:00,32.9,27.1,29.96,North,350,2.0,6.0,79,0.00,,---,0.00,0.00,VWS V14.01,2013-03-07 10:56:00,
2013-03-07 05:59:00,32.9,26.8,29.96,NE,51,2.0,9.0,78,0.00,,---,0.00,0.00,VWS V14.01,2013-03-07 10:59:00,
2013-03-07 06:01:00,32.9,26.8,29.96,NW,321,0.0,9.0,78,0.00,,---,0.00,0.00,VWS V14.01,2013-03-07 11:01:00,
2013-03-07 06:04:00,32.9,26.8,29.96,NE,34,3.0,7.0,78,0.00,,---,0.00,0.00,VWS V14.01,2013-03-07 11:04:00,
2013-03-07 06:06:00,33.0,26.6,29.96,NW,322,4.0,12.0,77,0.00,,---,0.00,0.00,VWS V14.01,2013-03-07 11:06:00,
2013-03-07 06:09:00,33.0,26.6,29.96,NNW,331,2.0,12.0,77,0.00,,---,0.00,0.00,VWS V14.01,2013-03-07 11:09:00,
2013-03-07 06:11:00,33.1,26.7,29.96,NNW,346,4.0,12.0,77,0.00,,---,0.00,0.00,VWS V14.01,2013-03-07 11:11:00,
2013-03-07 06:14:00,33.1,26.7,29.96,North,355,2.0,4.0,77,0.00,,---,0.00,0.00,VWS V14.01,2013-03-07 11:14:00,
2013-03-07 06:16:00,33.1,26.7,29.96,North,355,8.0,10.0,77,0.00,,---,0.00,0.00,VWS V14.01,2013-03-07 11:16:00,
2013-03-07 06:19:00,33.1,26.7,29.96,NE,36,2.0,10.0,77,0.00,,---,0.00,0.00,VWS V14.01,2013-03-07 11:19:00,
2013-03-07 06:21:00,33.2,26.8,29.96,ENE,59,2.0,10.0,77,0.00,,---,0.00,0.00,VWS V14.01,2013-03-07 11:21:00,
2013-03-07 06:24:00,33.1,27.0,29.96,NE,42,2.0,4.0,78,0.00,,---,0.00,0.00,VWS V14.01,2013-03-07 11:24:00,
2013-03-07 06:26:00,33.1,27.0,29.96,NNW,348,4.0,4.0,78,0.00,,---,0.00,0.00,VWS V14.01,2013-03-07 11:26:00,
2013-03-07 06:29:00,33.1,27.0,29.97,North,360,3.0,6.0,78,0.00,,---,0.00,0.00,VWS V14.01,2013-03-07 11:29:00,
2013-03-07 06:31:00,33.0,27.2,29.97,NNE,19,1.0,8.0,79,0.00,,---,0.00,0.00,VWS V14.01,2013-03-07 11:31:00,
2013-03-07 06:32:00,33.0,27.2,29.97,North,355,2.0,8.0,79,0.00,,---,0.00,0.00,VWS V14.01,2013-03-07 11:32:00,
2013-03-07 06:34:00,32.9,27.4,29.96,ENE,69,2.0,14.0,80,0.00,,---,0.00,0.00,VWS V14.01,2013-03-07 11:34:00,
2013-03-07 06:37:00,32.9,27.4,29.97,NNW,343,3.0,14.0,80,0.00,,---,0.00,5.00,VWS V14.01,2013-03-07 11:37:00,
2013-03-07 06:39:00,32.8,27.6,29.97,North,5,2.0,14.0,81,0.00,,---,0.00,5.00,VWS V14.01,2013-03-07 11:39:00,
2013-03-07 06:42:00,32.6,27.7,29.97,NNE,15,5.0,14.0,82,0.00,,---,0.00,5.00,VWS V14.01,2013-03-07 11:42:00,
2013-03-07 06:44:00,32.5,27.9,29.97,NE,35,1.0,6.0,83,0.00,,---,0.00,5.00,VWS V14.01,2013-03-07 11:44:00,
2013-03-07 06:47:00,32.3,28.0,29.98,NNE,13,1.0,6.0,84,0.00,,---,0.00,5.00,VWS V14.01,2013-03-07 11:47:00,
2013-03-07 06:49:00,32.2,27.9,29.98,East,82,2.0,6.0,84,0.00,,---,0.00,5.00,VWS V14.01,2013-03-07 11:49:00,
2013-03-07 06:52:00,32.0,28.3,29.98,NNW,343,3.0,3.0,86,0.00,,---,0.00,5.00,VWS V14.01,2013-03-07 11:52:00,
2013-03-07 06:53:00,32.0,28.3,29.98,North,360,2.0,4.0,86,0.00,,---,0.00,5.00,VWS V14.01,2013-03-07 11:53:00,
2013-03-07 06:54:00,31.9,28.2,29.98,North,9,3.0,6.0,86,0.00,,---,0.00,5.00,VWS V14.01,2013-03-07 11:54:00,
2013-03-07 06:57:00,31.8,28.4,29.98,NNW,341,0.0,8.0,87,0.00,,---,0.00,7.00,VWS V14.01,2013-03-07 11:57:00,
2013-03-07 06:58:00,31.8,28.4,29.98,NNW,345,3.0,8.0,87,0.00,,---,0.00,7.00,VWS V14.01,2013-03-07 11:58:00,
2013-03-07 06:59:00,31.7,28.6,29.98,NNE,23,3.0,9.0,88,0.00,,---,0.00,7.00,VWS V14.01,2013-03-07 11:59:00,
2013-03-07 07:02:00,31.5,28.4,29.98,NNE,28,1.0,2.0,88,0.00,,---,0.00,7.00,VWS V14.01,2013-03-07 12:02:00,
2013-03-07 07:03:00,31.5,28.4,29.98,NNE,28,0.0,2.0,88,0.00,,---,0.00,7.00,VWS V14.01,2013-03-07 12:03:00,
2013-03-07 07:04:00,31.4,28.5,29.98,NNE,24,3.0,6.0,89,0.00,,---,0.00,7.00,VWS V14.01,2013-03-07 12:04:00,
2013-03-07 07:07:00,31.3,28.4,29.98,North,350,0.0,7.0,89,0.00,,---,0.00,7.00,VWS V14.01,2013-03-07 12:07:00,
2013-03-07 07:08:00,31.3,28.4,29.98,North,355,5.0,7.0,89,0.00,,---,0.00,7.00,VWS V14.01,2013-03-07 12:08:00,
2013-03-07 07:09:00,31.2,28.3,29.98,NNE,14,3.0,10.0,89,0.00,,---,0.00,7.00,VWS V14.01,2013-03-07 12:09:00,
2013-03-07 07:12:00,31.1,28.2,29.98,NNW,342,5.0,5.0,89,0.00,,---,0.00,9.00,VWS V14.01,2013-03-07 12:12:00,
2013-03-07 07:13:00,31.1,28.2,29.98,NNW,339,2.0,5.0,89,0.00,,---,0.00,9.00,VWS V14.01,2013-03-07 12:13:00,
2013-03-07 07:15:00,31.1,28.5,29.98,NE,37,3.0,6.0,90,0.00,,---,0.00,9.00,VWS V14.01,2013-03-07 12:15:00,
2013-03-07 07:18:00,31.0,28.4,29.98,East,89,0.0,6.0,90,0.00,,---,0.00,9.00,VWS V14.01,2013-03-07 12:18:00,
2013-03-07 07:20:00,31.0,28.4,29.98,North,5,3.0,8.0,90,0.00,,---,0.00,9.00,VWS V14.01,2013-03-07 12:20:00,
2013-03-07 07:23:00,30.9,28.3,29.98,NNW,347,4.0,5.0,90,0.00,,---,0.00,11.00,VWS V14.01,2013-03-07 12:23:00,
2013-03-07 07:25:00,30.9,28.6,29.99,NNW,336,0.0,5.0,91,0.00,,---,0.00,12.00,VWS V14.01,2013-03-07 12:25:00,
2013-03-07 07:28:00,30.9,28.6,29.99,North,5,3.0,5.0,91,0.00,,---,0.00,14.00,VWS V14.01,2013-03-07 12:28:00,
2013-03-07 07:30:00,30.8,28.5,29.98,North,349,1.0,5.0,91,0.00,,---,0.00,14.00,VWS V14.01,2013-03-07 12:30:00,
2013-03-07 07:33:00,30.8,28.5,29.99,North,5,4.0,4.0,91,0.00,,---,0.00,16.00,VWS V14.01,2013-03-07 12:33:00,
2013-03-07 07:35:00,30.8,28.5,29.98,NNE,23,2.0,4.0,91,0.00,,---,0.00,18.00,VWS V14.01,2013-03-07 12:35:00,
2013-03-07 07:38:00,30.8,28.5,29.98,North,355,2.0,4.0,91,0.00,,---,0.00,19.00,VWS V14.01,2013-03-07 12:38:00,
2013-03-07 07:40:00,30.9,28.6,29.98,North,11,2.0,4.0,91,0.00,,---,0.00,19.00,VWS V14.01,2013-03-07 12:40:00,
2013-03-07 07:43:00,30.9,28.3,29.98,NNW,331,3.0,6.0,90,0.00,,---,0.00,18.00,VWS V14.01,2013-03-07 12:43:00,
2013-03-07 07:45:00,31.0,28.4,29.98,North,360,2.0,6.0,90,0.00,,---,0.00,18.00,VWS V14.01,2013-03-07 12:45:00,
2013-03-07 07:48:00,31.0,28.4,29.98,NE,43,0.0,6.0,90,0.00,,---,0.00,21.00,VWS V14.01,2013-03-07 12:48:00,
2013-03-07 07:50:00,31.1,28.5,29.98,North,355,3.0,6.0,90,0.00,,---,0.00,23.00,VWS V14.01,2013-03-07 12:50:00,
2013-03-07 07:53:00,31.1,28.2,29.98,NE,36,2.0,6.0,89,0.00,,---,0.00,32.00,VWS V14.01,2013-03-07 12:53:00,
2013-03-07 07:55:00,31.2,28.3,29.98,NNW,348,3.0,6.0,89,0.00,,---,0.00,37.00,VWS V14.01,2013-03-07 12:55:00,
2013-03-07 07:58:00,31.3,28.4,29.98,NNW,338,5.0,6.0,89,0.00,,---,0.00,44.00,VWS V14.01,2013-03-07 12:58:00,
2013-03-07 07:59:00,31.3,28.4,29.98,North,349,4.0,6.0,89,0.00,,---,0.00,44.00,VWS V14.01,2013-03-07 12:59:00,
2013-03-07 08:00:00,31.4,28.3,29.98,ENE,62,1.0,6.0,88,0.00,,---,0.00,49.00,VWS V14.01,2013-03-07 13:00:00,
2013-03-07 08:04:00,31.5,28.4,29.98,NNE,17,2.0,5.0,88,0.00,,---,0.00,58.00,VWS V14.01,2013-03-07 13:04:00,
2013-03-07 08:06:00,31.6,28.5,29.98,NNE,28,1.0,10.0,88,0.00,,---,0.00,63.00,VWS V14.01,2013-03-07 13:06:00,
2013-03-07 08:09:00,31.8,28.4,29.98,NNW,347,0.0,10.0,87,0.00,,---,0.00,63.00,VWS V14.01,2013-03-07 13:09:00,
2013-03-07 08:11:00,31.9,28.5,29.98,North,350,3.0,10.0,87,0.00,,---,0.00,62.00,VWS V14.01,2013-03-07 13:11:00,
2013-03-07 08:14:00,32.0,28.3,29.98,North,360,3.0,5.0,86,0.00,,---,0.00,56.00,VWS V14.01,2013-03-07 13:14:00,
2013-03-07 08:16:00,32.1,28.4,29.98,North,355,0.0,5.0,86,0.00,,---,0.00,54.00,VWS V14.01,2013-03-07 13:16:00,
2013-03-07 08:19:00,32.3,28.6,29.98,NNW,342,4.0,5.0,86,0.00,,---,0.00,56.00,VWS V14.01,2013-03-07 13:19:00,
2013-03-07 08:20:00,32.3,28.6,29.98,NNW,329,5.0,7.0,86,0.00,,---,0.00,58.00,VWS V14.01,2013-03-07 13:20:00,
2013-03-07 08:21:00,32.4,28.4,29.98,North,360,2.0,7.0,85,0.00,,---,0.00,60.00,VWS V14.01,2013-03-07 13:21:00,
2013-03-07 08:24:00,32.4,28.4,29.98,NE,39,3.0,4.0,85,0.00,,---,0.00,63.00,VWS V14.01,2013-03-07 13:24:00,
2013-03-07 08:25:00,32.5,28.5,29.98,NNE,30,4.0,4.0,85,0.00,,---,0.00,65.00,VWS V14.01,2013-03-07 13:25:00,
2013-03-07 08:26:00,32.5,28.2,29.98,North,355,3.0,4.0,84,0.00,,---,0.00,69.00,VWS V14.01,2013-03-07 13:26:00,
2013-03-07 08:29:00,32.6,28.3,29.98,NNE,29,2.0,6.0,84,0.00,,---,0.00,74.00,VWS V14.01,2013-03-07 13:29:00,
2013-03-07 08:30:00,32.6,28.3,29.98,ENE,58,2.0,6.0,84,0.00,,---,0.00,81.00,VWS V14.01,2013-03-07 13:30:00,
2013-03-07 08:31:00,32.6,28.6,29.98,North,355,2.0,6.0,85,0.00,,---,0.00,90.00,VWS V14.01,2013-03-07 13:31:00,
2013-03-07 08:34:00,32.6,28.3,29.98,NNW,333,1.0,7.0,84,0.00,,---,0.00,97.00,VWS V14.01,2013-03-07 13:34:00,
2013-03-07 08:35:00,32.7,28.4,29.98,NNE,27,1.0,7.0,84,0.00,,---,0.00,104.00,VWS V14.01,2013-03-07 13:35:00,
2013-03-07 08:37:00,32.7,28.4,29.98,NE,54,1.0,7.0,84,0.00,,---,0.00,107.00,VWS V14.01,2013-03-07 13:37:00,
2013-03-07 08:39:00,32.8,28.2,29.98,WNW,294,4.0,9.0,83,0.00,,---,0.00,111.00,VWS V14.01,2013-03-07 13:39:00,
2013-03-07 08:40:00,32.9,28.3,29.98,NE,46,3.0,9.0,83,0.00,,---,0.00,111.00,VWS V14.01,2013-03-07 13:40:00,
2013-03-07 08:42:00,33.0,28.4,29.99,North,360,4.0,9.0,83,0.00,,---,0.00,107.00,VWS V14.01,2013-03-07 13:42:00,
2013-03-07 08:44:00,33.0,28.1,29.98,NNE,26,3.0,5.0,82,0.00,,---,0.00,100.00,VWS V14.01,2013-03-07 13:44:00,
2013-03-07 08:45:00,33.0,28.4,29.98,NW,308,2.0,5.0,83,0.00,,---,0.00,97.00,VWS V14.01,2013-03-07 13:45:00,
2013-03-07 08:47:00,33.1,28.2,29.98,North,5,6.0,8.0,82,0.00,,---,0.00,91.00,VWS V14.01,2013-03-07 13:47:00,
2013-03-07 08:49:00,33.1,28.2,29.98,NNE,14,2.0,8.0,82,0.00,,---,0.00,91.00,VWS V14.01,2013-03-07 13:49:00,
2013-03-07 08:51:00,33.1,27.9,29.98,North,5,5.0,19.0,81,0.00,,---,0.00,91.00,VWS V14.01,2013-03-07 13:51:00,
2013-03-07 08:52:00,33.2,28.0,29.98,NNE,19,3.0,3.0,81,0.00,,---,0.00,91.00,VWS V14.01,2013-03-07 13:52:00,
2013-03-07 08:54:00,33.2,28.0,29.98,NNW,346,1.0,5.0,81,0.00,,---,0.00,93.00,VWS V14.01,2013-03-07 13:54:00,
2013-03-07 08:56:00,33.2,27.7,29.97,NNE,23,2.0,9.0,80,0.00,,---,0.00,95.00,VWS V14.01,2013-03-07 13:56:00,
2013-03-07 08:57:00,33.3,28.1,29.98,NE,51,2.0,9.0,81,0.00,,---,0.00,97.00,VWS V14.01,2013-03-07 13:57:00,
2013-03-07 08:59:00,33.4,27.9,29.98,NNE,25,2.0,9.0,80,0.00,,---,0.00,97.00,VWS V14.01,2013-03-07 13:59:00,
2013-03-07 09:01:00,33.4,27.9,29.98,North,9,1.0,9.0,80,0.00,,---,0.00,97.00,VWS V14.01,2013-03-07 14:01:00,
2013-03-07 09:02:00,33.4,27.9,29.98,NNE,26,1.0,1.0,80,0.00,,---,0.00,95.00,VWS V14.01,2013-03-07 14:02:00,
2013-03-07 09:04:00,33.4,27.9,29.98,North,10,3.0,5.0,80,0.00,,---,0.00,91.00,VWS V14.01,2013-03-07 14:04:00,
2013-03-07 09:06:00,33.5,27.7,29.98,NNW,330,1.0,10.0,79,0.00,,---,0.00,90.00,VWS V14.01,2013-03-07 14:06:00,
2013-03-07 09:07:00,33.5,28.0,29.98,North,10,2.0,10.0,80,0.00,,---,0.00,91.00,VWS V14.01,2013-03-07 14:07:00,
2013-03-07 09:09:00,33.5,28.0,29.98,North,355,2.0,10.0,80,0.00,,---,0.00,95.00,VWS V14.01,2013-03-07 14:09:00,
2013-03-07 09:11:00,33.4,27.9,29.98,North,360,1.0,10.0,80,0.00,,---,0.00,91.00,VWS V14.01,2013-03-07 14:11:00,
2013-03-07 09:12:00,33.4,28.2,29.98,North,355,3.0,6.0,81,0.00,,---,0.00,93.00,VWS V14.01,2013-03-07 14:12:00,
2013-03-07 09:14:00,33.3,28.1,29.98,NNE,16,2.0,9.0,81,0.00,,---,0.00,93.00,VWS V14.01,2013-03-07 14:14:00,
2013-03-07 09:16:00,33.3,28.1,29.99,NNE,19,1.0,9.0,81,0.00,,---,0.00,93.00,VWS V14.01,2013-03-07 14:16:00,
2013-03-07 09:17:00,33.3,28.1,29.98,NNW,336,3.0,9.0,81,0.00,,---,0.00,95.00,VWS V14.01,2013-03-07 14:17:00,
2013-03-07 09:20:00,33.2,28.0,29.98,North,355,5.0,9.0,81,0.01,,---,0.01,97.00,VWS V14.01,2013-03-07 14:20:00,
2013-03-07 09:21:00,33.2,28.0,29.98,NNW,344,2.0,9.0,81,0.01,,---,0.01,100.00,VWS V14.01,2013-03-07 14:21:00,
2013-03-07 09:22:00,33.2,28.3,29.98,North,355,3.0,4.0,82,0.01,,---,0.01,100.00,VWS V14.01,2013-03-07 14:22:00,
2013-03-07 09:25:00,33.1,28.5,29.98,NNW,335,1.0,5.0,83,0.01,,---,0.01,98.00,VWS V14.01,2013-03-07 14:25:00,
2013-03-07 09:26:00,33.1,28.5,29.98,NNW,328,3.0,6.0,83,0.01,,---,0.01,100.00,VWS V14.01,2013-03-07 14:26:00,
2013-03-07 09:27:00,33.0,28.4,29.98,NNE,12,4.0,8.0,83,0.01,,---,0.01,100.00,VWS V14.01,2013-03-07 14:27:00,
2013-03-07 09:30:00,32.9,28.6,29.98,North,9,0.0,8.0,84,0.01,,---,0.01,97.00,VWS V14.01,2013-03-07 14:30:00,
2013-03-07 09:31:00,32.8,28.8,29.98,North,5,3.0,9.0,85,0.01,,---,0.01,98.00,VWS V14.01,2013-03-07 14:31:00,
2013-03-07 09:33:00,32.7,28.7,29.98,NNW,345,1.0,4.0,85,0.01,,---,0.01,98.00,VWS V14.01,2013-03-07 14:33:00,
2013-03-07 09:35:00,32.6,28.9,29.98,North,351,5.0,8.0,86,0.01,,---,0.01,98.00,VWS V14.01,2013-03-07 14:35:00,
2013-03-07 09:36:00,32.6,28.9,29.98,NW,315,1.0,8.0,86,0.01,,---,0.01,98.00,VWS V14.01,2013-03-07 14:36:00,
2013-03-07 09:38:00,32.6,28.9,29.98,NNW,336,3.0,8.0,86,0.01,,---,0.01,100.00,VWS V14.01,2013-03-07 14:38:00,
2013-03-07 09:40:00,32.5,29.1,29.99,WNW,285,1.0,8.0,87,0.01,,---,0.01,105.00,VWS V14.01,2013-03-07 14:40:00,
2013-03-07 09:41:00,32.5,29.4,29.98,NW,326,0.0,8.0,88,0.01,,---,0.01,107.00,VWS V14.01,2013-03-07 14:41:00,
2013-03-07 09:43:00,32.5,29.6,29.98,NNE,26,1.0,2.0,89,0.01,,---,0.01,109.00,VWS V14.01,2013-03-07 14:43:00,
2013-03-07 09:45:00,32.4,29.2,29.98,North,9,3.0,6.0,88,0.01,,---,0.01,123.00,VWS V14.01,2013-03-07 14:45:00,
2013-03-07 09:46:00,32.4,29.2,29.98,NNW,334,0.0,6.0,88,0.01,,---,0.01,125.00,VWS V14.01,2013-03-07 14:46:00,
2013-03-07 09:48:00,32.4,29.2,29.98,West,273,0.0,6.0,88,0.01,,---,0.01,139.00,VWS V14.01,2013-03-07 14:48:00,
2013-03-07 09:50:00,32.4,29.5,29.98,North,5,1.0,6.0,89,0.01,,---,0.01,151.00,VWS V14.01,2013-03-07 14:50:00,
2013-03-07 09:51:00,32.5,29.4,29.98,NNE,15,6.0,6.0,88,0.01,,---,0.01,153.00,VWS V14.01,2013-03-07 14:51:00,
2013-03-07 09:53:00,32.5,29.4,29.98,NNE,23,3.0,6.0,88,0.01,,---,0.01,156.00,VWS V14.01,2013-03-07 14:53:00,
2013-03-07 09:55:00,32.5,29.4,29.98,North,360,5.0,7.0,88,0.01,,---,0.01,148.00,VWS V14.01,2013-03-07 14:55:00,
2013-03-07 09:56:00,32.5,29.4,29.98,North,355,9.0,10.0,88,0.01,,---,0.01,153.00,VWS V14.01,2013-03-07 14:56:00,
2013-03-07 09:58:00,32.6,29.5,29.98,NNE,26,0.0,10.0,88,0.01,,---,0.01,142.00,VWS V14.01,2013-03-07 14:58:00,
2013-03-07 10:00:00,32.6,29.5,29.98,NNW,347,4.0,10.0,88,0.01,,---,0.01,146.00,VWS V14.01,2013-03-07 15:00:00,
2013-03-07 10:02:00,32.7,29.5,29.98,NE,53,1.0,10.0,88,0.01,,---,0.01,146.00,VWS V14.01,2013-03-07 15:02:00,
2013-03-07 10:03:00,32.8,29.6,29.98,WSW,244,0.0,3.0,88,0.01,,---,0.01,149.00,VWS V14.01,2013-03-07 15:03:00,
2013-03-07 10:06:00,32.8,29.6,29.98,WSW,247,3.0,7.0,88,0.01,,---,0.01,149.00,VWS V14.01,2013-03-07 15:06:00,
2013-03-07 10:08:00,32.9,29.7,29.98,North,355,2.0,7.0,88,0.01,,---,0.01,146.00,VWS V14.01,2013-03-07 15:08:00,
2013-03-07 10:11:00,33.0,29.6,29.98,NW,321,2.0,7.0,87,0.01,,---,0.01,125.00,VWS V14.01,2013-03-07 15:11:00,
2013-03-07 10:12:00,33.0,29.8,29.98,NNW,329,0.0,7.0,88,0.01,,---,0.01,137.00,VWS V14.01,2013-03-07 15:12:00,
2013-03-07 10:13:00,33.0,29.6,29.98,NNW,327,2.0,8.0,87,0.01,,---,0.01,149.00,VWS V14.01,2013-03-07 15:13:00,
2013-03-07 10:16:00,33.0,29.6,29.98,NNE,19,0.0,8.0,87,0.02,,---,0.02,148.00,VWS V14.01,2013-03-07 15:16:00,
2013-03-07 10:17:00,33.0,29.6,29.98,North,355,0.0,8.0,87,0.02,,---,0.02,141.00,VWS V14.01,2013-03-07 15:17:00,
2013-03-07 10:19:00,33.1,29.7,29.98,NNE,24,3.0,8.0,87,0.02,,---,0.02,137.00,VWS V14.01,2013-03-07 15:19:00,
2013-03-07 10:21:00,33.2,29.8,29.98,North,355,6.0,8.0,87,0.02,,---,0.02,156.00,VWS V14.01,2013-03-07 15:21:00,
2013-03-07 10:22:00,33.2,29.5,29.98,NW,321,6.0,11.0,86,0.02,,---,0.02,158.00,VWS V14.01,2013-03-07 15:22:00,
2013-03-07 10:24:00,33.2,29.5,29.98,North,355,5.0,7.0,86,0.01,,---,0.02,162.00,VWS V14.01,2013-03-07 15:24:00,
2013-03-07 10:26:00,33.2,29.8,29.98,NE,41,4.0,7.0,87,0.01,,---,0.02,158.00,VWS V14.01,2013-03-07 15:26:00,
2013-03-07 10:27:00,33.2,29.8,29.98,North,360,0.0,7.0,87,0.01,,---,0.02,160.00,VWS V14.01,2013-03-07 15:27:00,
2013-03-07 10:29:00,33.3,29.9,29.98,NNW,341,3.0,7.0,87,0.01,,---,0.02,142.00,VWS V14.01,2013-03-07 15:29:00,
2013-03-07 10:31:00,33.3,29.9,29.98,NNE,17,1.0,7.0,87,0.01,,---,0.02,139.00,VWS V14.01,2013-03-07 15:31:00,
2013-03-07 10:32:00,33.3,29.9,29.98,NNW,348,3.0,7.0,87,0.01,,---,0.02,142.00,VWS V14.01,2013-03-07 15:32:00,
2013-03-07 10:34:00,33.3,30.1,29.98,NNE,17,1.0,5.0,88,0.01,,---,0.02,137.00,VWS V14.01,2013-03-07 15:34:00,
2013-03-07 10:36:00,33.3,29.9,29.98,East,92,7.0,7.0,87,0.01,,---,0.02,134.00,VWS V14.01,2013-03-07 15:36:00,
2013-03-07 10:37:00,33.2,29.8,29.98,NNE,12,3.0,7.0,87,0.01,,---,0.02,144.00,VWS V14.01,2013-03-07 15:37:00,
2013-03-07 10:39:00,33.2,29.8,29.98,North,355,2.0,7.0,87,0.01,,---,0.02,142.00,VWS V14.01,2013-03-07 15:39:00,
2013-03-07 10:41:00,33.2,29.8,29.98,North,351,6.0,7.0,87,0.01,,---,0.02,125.00,VWS V14.01,2013-03-07 15:41:00,
2013-03-07 10:42:00,33.2,29.8,29.98,NNW,327,1.0,1.0,87,0.01,,---,0.02,134.00,VWS V14.01,2013-03-07 15:42:00,
2013-03-07 10:44:00,33.2,29.8,29.98,NNW,343,4.0,7.0,87,0.01,,---,0.02,141.00,VWS V14.01,2013-03-07 15:44:00,
2013-03-07 10:46:00,33.2,29.8,29.99,NNE,30,3.0,7.0,87,0.01,,---,0.02,137.00,VWS V14.01,2013-03-07 15:46:00,
2013-03-07 10:47:00,33.2,29.8,29.99,North,5,3.0,7.0,87,0.01,,---,0.02,130.00,VWS V14.01,2013-03-07 15:47:00,
2013-03-07 10:49:00,33.2,29.8,29.99,NNW,338,5.0,7.0,87,0.01,,---,0.02,130.00,VWS V14.01,2013-03-07 15:49:00,
2013-03-07 10:51:00,33.2,29.8,29.99,North,355,1.0,7.0,87,0.01,,---,0.02,116.00,VWS V14.01,2013-03-07 15:51:00,
2013-03-07 10:52:00,33.2,29.8,29.99,North,355,3.0,5.0,87,0.01,,---,0.02,105.00,VWS V14.01,2013-03-07 15:52:00,
2013-03-07 10:54:00,33.2,29.8,29.99,NNE,27,2.0,5.0,87,0.01,,---,0.02,114.00,VWS V14.01,2013-03-07 15:54:00,
2013-03-07 10:56:00,33.3,29.9,29.99,NE,51,0.0,5.0,87,0.01,,---,0.02,105.00,VWS V14.01,2013-03-07 15:56:00,
2013-03-07 10:57:00,33.3,30.1,29.99,ENE,70,3.0,5.0,88,0.01,,---,0.02,109.00,VWS V14.01,2013-03-07 15:57:00,
2013-03-07 10:59:00,33.4,30.2,29.99,North,355,3.0,5.0,88,0.01,,---,0.02,116.00,VWS V14.01,2013-03-07 15:59:00,
2013-03-07 11:01:00,33.4,30.0,29.99,NNW,333,2.0,6.0,87,0.01,,---,0.02,105.00,VWS V14.01,2013-03-07 16:01:00,
2013-03-07 11:02:00,33.4,30.0,29.99,West,278,1.0,3.0,87,0.01,,---,0.02,114.00,VWS V14.01,2013-03-07 16:02:00,
2013-03-07 11:04:00,33.4,30.0,29.99,NW,304,1.0,5.0,87,0.01,,---,0.02,107.00,VWS V14.01,2013-03-07 16:04:00,
2013-03-07 11:06:00,33.4,30.0,29.99,NNW,333,0.0,5.0,87,0.01,,---,0.02,100.00,VWS V14.01,2013-03-07 16:06:00,
2013-03-07 11:07:00,33.4,30.2,29.99,NNW,344,1.0,5.0,88,0.01,,---,0.02,98.00,VWS V14.01,2013-03-07 16:07:00,
2013-03-07 11:09:00,33.4,30.2,29.99,NNE,19,2.0,5.0,88,0.01,,---,0.02,105.00,VWS V14.01,2013-03-07 16:09:00,
2013-03-07 11:11:00,33.4,30.2,29.99,NNE,12,4.0,7.0,88,0.01,,---,0.02,118.00,VWS V14.01,2013-03-07 16:11:00,
2013-03-07 11:13:00,33.4,30.2,29.99,NNW,338,3.0,4.0,88,0.01,,---,0.02,120.00,VWS V14.01,2013-03-07 16:13:00,
2013-03-07 11:14:00,33.5,30.3,29.99,NNW,344,2.0,4.0,88,0.01,,---,0.02,114.00,VWS V14.01,2013-03-07 16:14:00,
2013-03-07 11:16:00,33.5,30.3,29.99,NE,43,0.0,4.0,88,0.01,,---,0.02,130.00,VWS V14.01,2013-03-07 16:16:00,
2013-03-07 11:18:00,33.6,30.4,29.99,NNW,340,1.0,4.0,88,0.01,,---,0.02,146.00,VWS V14.01,2013-03-07 16:18:00,
2013-03-07 11:20:00,33.7,30.5,29.99,North,11,1.0,4.0,88,0.01,,---,0.02,153.00,VWS V14.01,2013-03-07 16:20:00,
2013-03-07 11:21:00,33.7,30.5,29.99,ENE,67,3.0,4.0,88,0.01,,---,0.02,162.00,VWS V14.01,2013-03-07 16:21:00,
2013-03-07 11:23:00,33.8,30.4,29.99,NNW,340,2.0,4.0,87,0.00,,---,0.02,172.00,VWS V14.01,2013-03-07 16:23:00,
2013-03-07 11:25:00,33.9,30.5,29.99,North,10,3.0,5.0,87,0.00,,---,0.02,179.00,VWS V14.01,2013-03-07 16:25:00,
2013-03-07 11:26:00,33.9,30.2,29.99,NNW,338,2.0,5.0,86,0.00,,---,0.02,183.00,VWS V14.01,2013-03-07 16:26:00,
2013-03-07 11:28:00,34.0,30.3,29.99,NNE,28,3.0,5.0,86,0.00,,---,0.02,176.00,VWS V14.01,2013-03-07 16:28:00,
2013-03-07 11:30:00,34.1,30.6,29.99,North,360,1.0,8.0,87,0.00,,---,0.02,176.00,VWS V14.01,2013-03-07 16:30:00,
2013-03-07 11:32:00,34.2,30.7,29.99,North,360,0.0,8.0,87,0.00,,---,0.02,176.00,VWS V14.01,2013-03-07 16:32:00,
2013-03-07 11:33:00,34.3,30.8,29.99,NNE,19,2.0,3.0,87,0.00,,---,0.02,179.00,VWS V14.01,2013-03-07 16:33:00,
2013-03-07 11:35:00,34.4,30.9,29.99,North,355,0.0,4.0,87,0.00,,---,0.02,178.00,VWS V14.01,2013-03-07 16:35:00,
2013-03-07 11:37:00,34.4,30.6,29.99,North,360,3.0,5.0,86,0.00,,---,0.02,172.00,VWS V14.01,2013-03-07 16:37:00,
2013-03-07 11:38:00,34.4,30.6,29.99,North,5,1.0,5.0,86,0.00,,---,0.02,169.00,VWS V14.01,2013-03-07 16:38:00,
2013-03-07 11:40:00,34.4,30.6,29.99,North,360,3.0,5.0,86,0.00,,---,0.02,183.00,VWS V14.01,2013-03-07 16:40:00,
2013-03-07 11:42:00,34.5,30.8,29.99,WSW,239,0.0,5.0,86,0.00,,---,0.02,174.00,VWS V14.01,2013-03-07 16:42:00,
2013-03-07 11:43:00,34.6,30.9,29.99,NNE,13,2.0,4.0,86,0.00,,---,0.02,172.00,VWS V14.01,2013-03-07 16:43:00,
2013-03-07 11:45:00,34.7,31.2,29.99,North,11,2.0,4.0,87,0.00,,---,0.02,190.00,VWS V14.01,2013-03-07 16:45:00,
2013-03-07 11:47:00,34.8,31.3,29.99,NNW,335,2.0,4.0,87,0.00,,---,0.02,186.00,VWS V14.01,2013-03-07 16:47:00,
2013-03-07 11:48:00,35.0,31.5,29.99,NW,319,0.0,4.0,87,0.00,,---,0.02,183.00,VWS V14.01,2013-03-07 16:48:00,
2013-03-07 11:51:00,35.1,31.0,29.99,NE,48,2.0,4.0,85,0.00,,---,0.02,178.00,VWS V14.01,2013-03-07 16:51:00,
2013-03-07 11:52:00,35.2,30.9,29.99,NE,38,1.0,4.0,84,0.00,,---,0.02,176.00,VWS V14.01,2013-03-07 16:52:00,
2013-03-07 11:53:00,35.2,31.1,29.99,NE,36,0.0,1.0,85,0.00,,---,0.02,174.00,VWS V14.01,2013-03-07 16:53:00,
2013-03-07 11:56:00,35.4,31.1,29.99,ESE,102,1.0,2.0,84,0.00,,---,0.02,178.00,VWS V14.01,2013-03-07 16:56:00,
2013-03-07 11:57:00,35.5,31.1,29.99,ENE,57,0.0,2.0,84,0.00,,---,0.02,171.00,VWS V14.01,2013-03-07 16:57:00,
2013-03-07 11:58:00,35.6,31.2,29.99,NNW,343,3.0,4.0,84,0.00,,---,0.02,167.00,VWS V14.01,2013-03-07 16:58:00,
2013-03-07 12:01:00,35.7,31.4,29.99,NNE,20,2.0,4.0,84,0.00,,---,0.02,171.00,VWS V14.01,2013-03-07 17:01:00,
2013-03-07 12:02:00,35.7,31.0,29.99,NNE,24,2.0,2.0,83,0.00,,---,0.02,174.00,VWS V14.01,2013-03-07 17:02:00,
2013-03-07 12:03:00,35.8,31.1,29.99,WSW,242,1.0,5.0,83,0.00,,---,0.02,178.00,VWS V14.01,2013-03-07 17:03:00,
2013-03-07 12:06:00,35.8,31.1,29.99,NNW,336,0.0,5.0,83,0.00,,---,0.02,160.00,VWS V14.01,2013-03-07 17:06:00,
2013-03-07 12:07:00,35.8,31.1,29.99,NNE,17,3.0,5.0,83,0.00,,---,0.02,162.00,VWS V14.01,2013-03-07 17:07:00,
2013-03-07 12:08:00,35.8,31.1,29.99,NNW,336,2.0,5.0,83,0.00,,---,0.02,162.00,VWS V14.01,2013-03-07 17:08:00,
2013-03-07 12:11:00,35.8,31.1,29.99,North,351,2.0,5.0,83,0.00,,---,0.02,165.00,VWS V14.01,2013-03-07 17:11:00,
2013-03-07 12:12:00,35.8,31.1,29.99,North,5,1.0,2.0,83,0.00,,---,0.02,169.00,VWS V14.01,2013-03-07 17:12:00,
2013-03-07 12:13:00,35.8,31.1,29.99,NNW,345,1.0,5.0,83,0.00,,---,0.02,163.00,VWS V14.01,2013-03-07 17:13:00,
2013-03-07 12:16:00,35.9,31.2,29.99,North,360,1.0,5.0,83,0.00,,---,0.02,156.00,VWS V14.01,2013-03-07 17:16:00,
2013-03-07 12:17:00,35.9,31.2,29.99,NW,325,2.0,5.0,83,0.00,,---,0.02,158.00,VWS V14.01,2013-03-07 17:17:00,
2013-03-07 12:19:00,35.9,31.2,29.99,North,360,1.0,5.0,83,0.00,,---,0.02,155.00,VWS V14.01,2013-03-07 17:19:00,
2013-03-07 12:21:00,35.8,31.1,29.99,NNW,338,3.0,5.0,83,0.00,,---,0.02,162.00,VWS V14.01,2013-03-07 17:21:00,
2013-03-07 12:22:00,35.8,31.1,29.99,NNW,342,0.0,1.0,83,0.00,,---,0.02,156.00,VWS V14.01,2013-03-07 17:22:00,
2013-03-07 12:24:00,35.9,31.8,29.99,North,350,0.0,3.0,85,0.00,,---,0.02,144.00,VWS V14.01,2013-03-07 17:24:00,
2013-03-07 12:26:00,35.9,31.8,29.99,NNE,15,0.0,4.0,85,0.00,,---,0.02,153.00,VWS V14.01,2013-03-07 17:26:00,
2013-03-07 12:28:00,35.9,31.8,29.99,NNE,12,2.0,4.0,85,0.00,,---,0.02,141.00,VWS V14.01,2013-03-07 17:28:00,
2013-03-07 12:29:00,35.9,31.8,29.99,NE,43,1.0,6.0,85,0.00,,---,0.02,158.00,VWS V14.01,2013-03-07 17:29:00,
2013-03-07 12:31:00,35.7,31.6,29.99,North,5,3.0,6.0,85,0.00,,---,0.02,153.00,VWS V14.01,2013-03-07 17:31:00,
2013-03-07 12:33:00,35.7,31.6,29.98,NNW,348,1.0,3.0,85,0.00,,---,0.02,163.00,VWS V14.01,2013-03-07 17:33:00,
2013-03-07 12:34:00,35.7,31.9,29.99,NNW,348,1.0,3.0,86,0.00,,---,0.02,160.00,VWS V14.01,2013-03-07 17:34:00,
2013-03-07 12:36:00,35.6,31.8,29.98,North,351,0.0,4.0,86,0.00,,---,0.02,149.00,VWS V14.01,2013-03-07 17:36:00,
2013-03-07 12:38:00,35.6,31.8,29.98,NNE,13,1.0,4.0,86,0.00,,---,0.02,153.00,VWS V14.01,2013-03-07 17:38:00,
2013-03-07 12:39:00,35.5,31.7,29.98,NNE,13,3.0,4.0,86,0.00,,---,0.02,149.00,VWS V14.01,2013-03-07 17:39:00,
2013-03-07 12:41:00,35.5,32.0,29.99,North,5,2.0,4.0,87,0.00,,---,0.02,149.00,VWS V14.01,2013-03-07 17:41:00,
2013-03-07 12:43:00,35.4,31.6,29.98,NNW,348,1.0,4.0,86,0.00,,---,0.02,135.00,VWS V14.01,2013-03-07 17:43:00,
2013-03-07 12:44:00,35.4,31.6,29.98,NNW,330,2.0,6.0,86,0.00,,---,0.02,111.00,VWS V14.01,2013-03-07 17:44:00,
2013-03-07 12:46:00,35.3,31.5,29.99,NNW,334,0.0,6.0,86,0.00,,---,0.02,144.00,VWS V14.01,2013-03-07 17:46:00,
2013-03-07 12:48:00,35.2,31.7,29.98,North,355,1.0,6.0,87,0.00,,---,0.02,142.00,VWS V14.01,2013-03-07 17:48:00,
2013-03-07 12:50:00,35.2,31.7,29.99,NNE,13,3.0,6.0,87,0.00,,---,0.02,162.00,VWS V14.01,2013-03-07 17:50:00,
2013-03-07 12:51:00,35.2,31.7,29.99,NNW,341,0.0,6.0,87,0.00,,---,0.02,155.00,VWS V14.01,2013-03-07 17:51:00,
2013-03-07 12:53:00,35.2,32.0,29.99,NNW,335,2.0,4.0,88,0.00,,---,0.02,171.00,VWS V14.01,2013-03-07 17:53:00,
2013-03-07 12:55:00,35.2,32.0,29.98,NNE,22,2.0,4.0,88,0.00,,---,0.02,188.00,VWS V14.01,2013-03-07 17:55:00,
2013-03-07 12:56:00,35.3,32.4,29.98,NNE,32,0.0,4.0,89,0.00,,---,0.02,207.00,VWS V14.01,2013-03-07 17:56:00,
2013-03-07 12:58:00,35.3,32.4,29.98,NNW,342,1.0,4.0,89,0.00,,---,0.02,192.00,VWS V14.01,2013-03-07 17:58:00,
2013-03-07 13:00:00,35.4,32.5,29.98,NNE,15,0.0,4.0,89,0.00,,---,0.02,195.00,VWS V14.01,2013-03-07 18:00:00,
2013-03-07 13:02:00,35.4,32.2,29.98,NNW,334,0.0,4.0,88,0.00,,---,0.02,178.00,VWS V14.01,2013-03-07 18:02:00,
2013-03-07 13:03:00,35.5,32.6,29.98,NNW,342,1.0,3.0,89,0.00,,---,0.02,171.00,VWS V14.01,2013-03-07 18:03:00,
2013-03-07 13:05:00,35.5,32.6,29.98,NE,39,1.0,3.0,89,0.00,,---,0.02,183.00,VWS V14.01,2013-03-07 18:05:00,
2013-03-07 13:07:00,35.5,32.6,29.98,WSW,237,3.0,3.0,89,0.00,,---,0.02,163.00,VWS V14.01,2013-03-07 18:07:00,
2013-03-07 13:08:00,35.5,32.6,29.98,NNE,24,1.0,4.0,89,0.00,,---,0.02,165.00,VWS V14.01,2013-03-07 18:08:00,
2013-03-07 13:10:00,35.5,32.3,29.98,North,355,0.0,5.0,88,0.00,,---,0.02,162.00,VWS V14.01,2013-03-07 18:10:00,
2013-03-07 13:12:00,35.4,32.5,29.98,North,355,3.0,4.0,89,0.00,,---,0.02,153.00,VWS V14.01,2013-03-07 18:12:00,
2013-03-07 13:13:00,35.4,32.5,29.98,North,5,2.0,4.0,89,0.00,,---,0.02,151.00,VWS V14.01,2013-03-07 18:13:00,
2013-03-07 13:15:00,35.4,32.2,29.98,NNW,344,1.0,4.0,88,0.00,,---,0.02,130.00,VWS V14.01,2013-03-07 18:15:00,
2013-03-07 13:17:00,35.3,32.1,29.98,NW,319,0.0,4.0,88,0.00,,---,0.02,116.00,VWS V14.01,2013-03-07 18:17:00,
2013-03-07 13:18:00,35.3,32.1,29.98,North,11,5.0,5.0,88,0.00,,---,0.02,111.00,VWS V14.01,2013-03-07 18:18:00,
2013-03-07 13:20:00,35.2,32.0,29.98,NNE,24,1.0,5.0,88,0.00,,---,0.02,120.00,VWS V14.01,2013-03-07 18:20:00,
2013-03-07 13:22:00,35.1,31.9,29.99,NE,37,2.0,2.0,88,0.00,,---,0.02,121.00,VWS V14.01,2013-03-07 18:22:00,
2013-03-07 13:23:00,35.1,31.9,29.99,North,5,2.0,3.0,88,0.00,,---,0.02,118.00,VWS V14.01,2013-03-07 18:23:00,
2013-03-07 13:25:00,35.0,32.1,29.99,North,11,0.0,3.0,89,0.00,,---,0.02,127.00,VWS V14.01,2013-03-07 18:25:00,
2013-03-07 13:27:00,35.1,32.2,29.99,NNW,342,3.0,7.0,89,0.00,,---,0.02,123.00,VWS V14.01,2013-03-07 18:27:00,
2013-03-07 13:28:00,35.1,32.2,29.99,North,360,3.0,7.0,89,0.00,,---,0.02,116.00,VWS V14.01,2013-03-07 18:28:00,
2013-03-07 13:30:00,35.0,31.8,29.99,North,351,3.0,7.0,88,0.00,,---,0.02,123.00,VWS V14.01,2013-03-07 18:30:00,
2013-03-07 13:32:00,35.0,31.8,29.99,ENE,61,1.0,2.0,88,0.00,,---,0.02,109.00,VWS V14.01,2013-03-07 18:32:00,
2013-03-07 13:33:00,35.0,31.5,29.99,North,5,5.0,6.0,87,0.00,,---,0.02,127.00,VWS V14.01,2013-03-07 18:33:00,
2013-03-07 13:35:00,35.0,31.8,29.99,North,360,1.0,6.0,88,0.00,,---,0.02,118.00,VWS V14.01,2013-03-07 18:35:00,
2013-03-07 13:37:00,35.0,31.5,29.99,North,5,1.0,7.0,87,0.00,,---,0.02,128.00,VWS V14.01,2013-03-07 18:37:00,
2013-03-07 13:38:00,35.0,31.5,29.99,NNE,15,1.0,7.0,87,0.00,,---,0.02,114.00,VWS V14.01,2013-03-07 18:38:00,
2013-03-07 13:40:00,35.1,31.9,29.99,NW,317,2.0,7.0,88,0.00,,---,0.02,120.00,VWS V14.01,2013-03-07 18:40:00,
2013-03-07 13:43:00,35.2,32.0,29.99,ENE,74,0.0,4.0,88,0.00,,---,0.02,114.00,VWS V14.01,2013-03-07 18:43:00,
2013-03-07 13:46:00,35.3,32.4,29.98,NNE,23,1.0,4.0,89,0.00,,---,0.02,118.00,VWS V14.01,2013-03-07 18:46:00,
2013-03-07 13:48:00,35.3,32.4,29.99,NE,54,0.0,4.0,89,0.00,,---,0.02,120.00,VWS V14.01,2013-03-07 18:48:00,
2013-03-07 13:49:00,35.3,32.4,29.99,North,355,3.0,4.0,89,0.00,,---,0.02,128.00,VWS V14.01,2013-03-07 18:49:00,
2013-03-07 13:51:00,35.4,32.5,29.99,NNW,340,1.0,4.0,89,0.00,,---,0.02,118.00,VWS V14.01,2013-03-07 18:51:00,
2013-03-07 13:53:00,35.4,32.2,29.99,NNW,342,2.0,3.0,88,0.00,,---,0.02,105.00,VWS V14.01,2013-03-07 18:53:00,
2013-03-07 13:54:00,35.4,32.2,29.99,WSW,240,1.0,3.0,88,0.00,,---,0.02,114.00,VWS V14.01,2013-03-07 18:54:00,
2013-03-07 13:56:00,35.4,32.2,29.99,North,360,4.0,4.0,88,0.00,,---,0.02,91.00,VWS V14.01,2013-03-07 18:56:00,
2013-03-07 13:58:00,35.4,32.2,29.99,North,355,0.0,4.0,88,0.00,,---,0.02,107.00,VWS V14.01,2013-03-07 18:58:00,
2013-03-07 13:59:00,35.4,32.5,29.99,North,355,0.0,4.0,89,0.00,,---,0.02,104.00,VWS V14.01,2013-03-07 18:59:00,
2013-03-07 14:01:00,35.4,32.2,29.99,WSW,239,0.0,4.0,88,0.00,,---,0.02,98.00,VWS V14.01,2013-03-07 19:01:00,
2013-03-07 14:03:00,35.3,31.8,29.99,NNW,331,1.0,3.0,87,0.00,,---,0.02,107.00,VWS V14.01,2013-03-07 19:03:00,
2013-03-07 14:04:00,35.2,32.0,29.99,NNW,327,1.0,4.0,88,0.00,,---,0.02,111.00,VWS V14.01,2013-03-07 19:04:00,
2013-03-07 14:06:00,35.2,31.7,29.99,NNW,342,0.0,4.0,87,0.00,,---,0.02,109.00,VWS V14.01,2013-03-07 19:06:00,
2013-03-07 14:08:00,35.1,31.6,29.99,NW,317,1.0,4.0,87,0.00,,---,0.02,90.00,VWS V14.01,2013-03-07 19:08:00,
2013-03-07 14:09:00,35.1,31.6,29.99,NNW,340,3.0,7.0,87,0.00,,---,0.02,104.00,VWS V14.01,2013-03-07 19:09:00,
2013-03-07 14:11:00,35.0,31.8,29.99,WNW,301,2.0,7.0,88,0.00,,---,0.02,77.00,VWS V14.01,2013-03-07 19:11:00,
2013-03-07 14:13:00,35.0,31.8,29.99,North,360,1.0,5.0,88,0.00,,---,0.02,67.00,VWS V14.01,2013-03-07 19:13:00,
2013-03-07 14:14:00,35.0,31.8,29.99,NW,308,1.0,5.0,88,0.00,,---,0.02,70.00,VWS V14.01,2013-03-07 19:14:00,
2013-03-07 14:16:00,34.9,31.7,30.00,NNW,328,3.0,5.0,88,0.00,,---,0.02,72.00,VWS V14.01,2013-03-07 19:16:00,
2013-03-07 14:18:00,34.9,31.7,30.00,NNW,348,2.0,6.0,88,0.00,,---,0.02,65.00,VWS V14.01,2013-03-07 19:18:00,
2013-03-07 14:19:00,34.8,31.6,30.00,NW,311,1.0,6.0,88,0.00,,---,0.02,69.00,VWS V14.01,2013-03-07 19:19:00,
2013-03-07 14:21:00,34.8,31.6,30.00,NNW,329,0.0,6.0,88,0.00,,---,0.02,76.00,VWS V14.01,2013-03-07 19:21:00,
2013-03-07 14:24:00,34.7,31.8,30.00,NNW,346,0.0,2.0,89,0.00,,---,0.02,88.00,VWS V14.01,2013-03-07 19:24:00,
2013-03-07 14:27:00,34.7,31.8,30.00,WSW,246,1.0,4.0,89,0.00,,---,0.02,77.00,VWS V14.01,2013-03-07 19:27:00,
2013-03-07 14:29:00,34.7,31.8,30.00,NE,36,0.0,4.0,89,0.00,,---,0.02,77.00,VWS V14.01,2013-03-07 19:29:00,
2013-03-07 14:30:00,34.7,31.8,30.00,NNW,346,2.0,4.0,89,0.00,,---,0.02,81.00,VWS V14.01,2013-03-07 19:30:00,
2013-03-07 14:33:00,34.8,31.9,30.00,NNW,327,2.0,2.0,89,0.00,,---,0.02,70.00,VWS V14.01,2013-03-07 19:33:00,
2013-03-07 14:34:00,34.8,32.2,30.00,NNE,15,1.0,2.0,90,0.00,,---,0.02,62.00,VWS V14.01,2013-03-07 19:34:00,
2013-03-07 14:35:00,34.8,32.2,30.00,North,360,0.0,3.0,90,0.00,,---,0.02,63.00,VWS V14.01,2013-03-07 19:35:00,
2013-03-07 14:38:00,34.8,31.9,30.00,North,355,2.0,6.0,89,0.00,,---,0.02,65.00,VWS V14.01,2013-03-07 19:38:00,
2013-03-07 14:39:00,34.8,31.9,30.00,North,355,0.0,6.0,89,0.00,,---,0.02,70.00,VWS V14.01,2013-03-07 19:39:00,
2013-03-07 14:40:00,34.8,31.9,30.00,WSW,242,1.0,6.0,89,0.00,,---,0.02,69.00,VWS V14.01,2013-03-07 19:40:00,
2013-03-07 14:43:00,34.7,31.8,30.00,SW,227,1.0,4.0,89,0.00,,---,0.02,63.00,VWS V14.01,2013-03-07 19:43:00,
2013-03-07 14:44:00,34.7,31.8,30.00,ENE,64,2.0,4.0,89,0.00,,---,0.02,69.00,VWS V14.01,2013-03-07 19:44:00,
2013-03-07 14:45:00,34.7,31.8,30.00,WSW,242,1.0,4.0,89,0.00,,---,0.02,69.00,VWS V14.01,2013-03-07 19:45:00,
2013-03-07 14:48:00,34.6,31.7,30.00,SW,234,1.0,4.0,89,0.00,,---,0.02,67.00,VWS V14.01,2013-03-07 19:48:00,
2013-03-07 14:49:00,34.5,31.6,30.00,NNW,344,2.0,4.0,89,0.00,,---,0.02,70.00,VWS V14.01,2013-03-07 19:49:00,
2013-03-07 14:50:00,34.5,31.6,30.00,NNW,344,1.0,4.0,89,0.00,,---,0.02,72.00,VWS V14.01,2013-03-07 19:50:00,
2013-03-07 14:53:00,34.5,31.6,30.00,West,262,2.0,3.0,89,0.01,,---,0.03,72.00,VWS V14.01,2013-03-07 19:53:00,
2013-03-07 14:54:00,34.5,31.6,30.00,WSW,250,0.0,3.0,89,0.01,,---,0.03,72.00,VWS V14.01,2013-03-07 19:54:00,
2013-03-07 14:55:00,34.5,31.9,30.00,WSW,248,0.0,3.0,90,0.01,,---,0.03,77.00,VWS V14.01,2013-03-07 19:55:00,
2013-03-07 14:59:00,34.4,31.5,30.00,North,5,2.0,5.0,89,0.01,,---,0.03,69.00,VWS V14.01,2013-03-07 19:59:00,
2013-03-07 15:01:00,34.4,31.5,30.01,NNW,347,0.0,5.0,89,0.01,,---,0.03,74.00,VWS V14.01,2013-03-07 20:01:00,
2013-03-07 15:04:00,34.4,31.8,30.00,North,355,0.0,3.0,90,0.01,,---,0.03,72.00,VWS V14.01,2013-03-07 20:04:00,
2013-03-07 15:06:00,34.4,31.8,30.00,West,265,0.0,4.0,90,0.01,,---,0.03,74.00,VWS V14.01,2013-03-07 20:06:00,
2013-03-07 15:09:00,34.4,31.5,30.00,NW,323,1.0,4.0,89,0.01,,---,0.03,63.00,VWS V14.01,2013-03-07 20:09:00,
2013-03-07 15:11:00,34.4,31.8,30.00,NNW,343,0.0,4.0,90,0.01,,---,0.03,62.00,VWS V14.01,2013-03-07 20:11:00,
2013-03-07 15:14:00,34.5,31.9,30.00,NNW,348,0.0,4.0,90,0.01,,---,0.03,54.00,VWS V14.01,2013-03-07 20:14:00,
2013-03-07 15:16:00,34.5,31.6,30.01,NNW,331,1.0,4.0,89,0.01,,---,0.03,53.00,VWS V14.01,2013-03-07 20:16:00,
2013-03-07 15:19:00,34.4,31.5,30.00,North,5,0.0,4.0,89,0.01,,---,0.03,54.00,VWS V14.01,2013-03-07 20:19:00,
2013-03-07 15:20:00,34.4,31.5,30.00,NNE,30,1.0,4.0,89,0.01,,---,0.03,54.00,VWS V14.01,2013-03-07 20:20:00,
2013-03-07 15:21:00,34.4,31.8,30.00,NE,45,0.0,4.0,90,0.01,,---,0.03,56.00,VWS V14.01,2013-03-07 20:21:00,
2013-03-07 15:24:00,34.4,31.5,30.00,NNE,19,1.0,5.0,89,0.01,,---,0.03,56.00,VWS V14.01,2013-03-07 20:24:00,
2013-03-07 15:25:00,34.4,31.5,30.00,NNW,339,0.0,5.0,89,0.01,,---,0.03,56.00,VWS V14.01,2013-03-07 20:25:00,
2013-03-07 15:26:00,34.4,31.5,30.00,SW,218,0.0,6.0,89,0.01,,---,0.03,56.00,VWS V14.01,2013-03-07 20:26:00,
2013-03-07 15:29:00,34.3,31.4,30.01,North,355,0.0,6.0,89,0.01,,---,0.03,58.00,VWS V14.01,2013-03-07 20:29:00,
2013-03-07 15:30:00,34.4,31.5,30.01,North,351,0.0,6.0,89,0.01,,---,0.03,56.00,VWS V14.01,2013-03-07 20:30:00,
2013-03-07 15:31:00,34.3,31.4,30.01,NNW,338,0.0,6.0,89,0.01,,---,0.03,51.00,VWS V14.01,2013-03-07 20:31:00,
2013-03-07 15:34:00,34.3,31.4,30.01,SW,226,0.0,3.0,89,0.01,,---,0.03,54.00,VWS V14.01,2013-03-07 20:34:00,
2013-03-07 15:35:00,34.3,31.4,30.01,SW,229,1.0,3.0,89,0.01,,---,0.03,54.00,VWS V14.01,2013-03-07 20:35:00,
2013-03-07 15:36:00,34.3,31.7,30.00,NNW,344,0.0,3.0,90,0.01,,---,0.03,49.00,VWS V14.01,2013-03-07 20:36:00,
2013-03-07 15:39:00,34.3,31.7,30.01,NNW,338,1.0,4.0,90,0.01,,---,0.03,49.00,VWS V14.01,2013-03-07 20:39:00,
2013-03-07 15:40:00,34.3,31.4,30.01,NW,324,0.0,4.0,89,0.01,,---,0.03,47.00,VWS V14.01,2013-03-07 20:40:00,
2013-03-07 15:41:00,34.3,31.4,30.01,NW,309,0.0,4.0,89,0.01,,---,0.03,47.00,VWS V14.01,2013-03-07 20:41:00,
2013-03-07 15:44:00,34.2,31.6,30.01,North,355,2.0,3.0,90,0.01,,---,0.03,44.00,VWS V14.01,2013-03-07 20:44:00,
2013-03-07 15:45:00,34.2,31.3,30.01,North,360,0.0,3.0,89,0.01,,---,0.03,42.00,VWS V14.01,2013-03-07 20:45:00,
2013-03-07 15:46:00,34.2,31.3,30.01,North,350,0.0,3.0,89,0.01,,---,0.03,40.00,VWS V14.01,2013-03-07 20:46:00,
2013-03-07 15:49:00,34.0,31.4,30.01,WNW,284,0.0,3.0,90,0.01,,---,0.03,40.00,VWS V14.01,2013-03-07 20:49:00,
2013-03-07 15:50:00,34.0,31.4,30.01,WNW,292,1.0,3.0,90,0.01,,---,0.03,40.00,VWS V14.01,2013-03-07 20:50:00,
2013-03-07 15:51:00,34.0,31.4,30.01,North,5,0.0,3.0,90,0.01,,---,0.03,40.00,VWS V14.01,2013-03-07 20:51:00,
2013-03-07 15:54:00,33.9,31.3,30.01,NW,315,0.0,3.0,90,0.01,,---,0.04,40.00,VWS V14.01,2013-03-07 20:54:00,
2013-03-07 15:55:00,33.9,31.3,30.01,North,5,0.0,3.0,90,0.01,,---,0.04,37.00,VWS V14.01,2013-03-07 20:55:00,
2013-03-07 15:56:00,33.9,31.3,30.01,NNW,328,1.0,4.0,90,0.01,,---,0.04,37.00,VWS V14.01,2013-03-07 20:56:00,
2013-03-07 15:59:00,33.9,31.3,30.01,WNW,291,2.0,4.0,90,0.01,,---,0.04,39.00,VWS V14.01,2013-03-07 20:59:00,
2013-03-07 16:00:00,33.8,31.2,30.01,NE,34,3.0,4.0,90,0.01,,---,0.04,40.00,VWS V14.01,2013-03-07 21:00:00,
2013-03-07 16:01:00,33.9,31.3,30.01,WNW,291,1.0,4.0,90,0.01,,---,0.04,40.00,VWS V14.01,2013-03-07 21:01:00,
2013-03-07 16:04:00,33.8,30.9,30.01,NNW,347,0.0,2.0,89,0.01,,---,0.04,39.00,VWS V14.01,2013-03-07 21:04:00,
2013-03-07 16:05:00,33.8,31.2,30.01,NE,55,3.0,3.0,90,0.01,,---,0.04,39.00,VWS V14.01,2013-03-07 21:05:00,
2013-03-07 16:06:00,33.8,31.2,30.01,NNE,24,0.0,3.0,90,0.01,,---,0.04,39.00,VWS V14.01,2013-03-07 21:06:00,
2013-03-07 16:09:00,33.8,31.2,30.01,NW,323,0.0,3.0,90,0.01,,---,0.04,33.00,VWS V14.01,2013-03-07 21:09:00,
2013-03-07 16:10:00,33.8,31.2,30.01,NNE,21,1.0,3.0,90,0.01,,---,0.04,32.00,VWS V14.01,2013-03-07 21:10:00,
2013-03-07 16:11:00,33.8,30.9,30.01,NE,38,2.0,4.0,89,0.01,,---,0.04,33.00,VWS V14.01,2013-03-07 21:11:00,
2013-03-07 16:15:00,33.8,30.9,30.01,WSW,239,1.0,3.0,89,0.01,,---,0.04,30.00,VWS V14.01,2013-03-07 21:15:00,
2013-03-07 16:17:00,33.7,30.8,30.01,NNE,24,2.0,4.0,89,0.01,,---,0.04,32.00,VWS V14.01,2013-03-07 21:17:00,
2013-03-07 16:20:00,33.7,30.8,30.01,North,355,0.0,5.0,89,0.01,,---,0.04,30.00,VWS V14.01,2013-03-07 21:20:00,
2013-03-07 16:22:00,33.7,31.1,30.01,North,355,0.0,5.0,90,0.01,,---,0.04,26.00,VWS V14.01,2013-03-07 21:22:00,
2013-03-07 16:25:00,33.7,31.1,30.01,North,355,2.0,5.0,90,0.01,,---,0.04,23.00,VWS V14.01,2013-03-07 21:25:00,
2013-03-07 16:27:00,33.6,31.0,30.01,ENE,74,0.0,5.0,90,0.01,,---,0.04,21.00,VWS V14.01,2013-03-07 21:27:00,
2013-03-07 16:30:00,33.6,31.0,30.02,NNE,32,1.0,5.0,90,0.01,,---,0.04,21.00,VWS V14.01,2013-03-07 21:30:00,
2013-03-07 16:31:00,33.6,31.0,30.02,North,5,1.0,5.0,90,0.01,,---,0.04,21.00,VWS V14.01,2013-03-07 21:31:00,
2013-03-07 16:32:00,33.5,30.9,30.02,WSW,245,0.0,5.0,90,0.01,,---,0.04,21.00,VWS V14.01,2013-03-07 21:32:00,
2013-03-07 16:35:00,33.5,30.9,30.02,NNW,333,2.0,2.0,90,0.01,,---,0.04,18.00,VWS V14.01,2013-03-07 21:35:00,
2013-03-07 16:36:00,33.5,31.2,30.02,NNW,333,0.0,2.0,91,0.01,,---,0.04,18.00,VWS V14.01,2013-03-07 21:36:00,
2013-03-07 16:37:00,33.4,31.1,30.02,North,355,0.0,3.0,91,0.01,,---,0.04,18.00,VWS V14.01,2013-03-07 21:37:00,
2013-03-07 16:41:00,33.3,31.0,30.02,North,349,0.0,3.0,91,0.01,,---,0.04,16.00,VWS V14.01,2013-03-07 21:41:00,
2013-03-07 16:42:00,33.3,31.0,30.02,North,355,0.0,1.0,91,0.01,,---,0.04,16.00,VWS V14.01,2013-03-07 21:42:00,
2013-03-07 16:46:00,33.2,30.9,30.02,NW,311,0.0,3.0,91,0.01,,---,0.04,16.00,VWS V14.01,2013-03-07 21:46:00,
2013-03-07 16:47:00,33.1,30.8,30.02,NNW,331,1.0,3.0,91,0.01,,---,0.04,14.00,VWS V14.01,2013-03-07 21:47:00,
2013-03-07 16:51:00,33.1,30.8,30.02,NNE,25,2.0,3.0,91,0.01,,---,0.04,16.00,VWS V14.01,2013-03-07 21:51:00,
2013-03-07 16:52:00,33.1,30.5,30.02,NNE,13,0.0,2.0,90,0.01,,---,0.04,18.00,VWS V14.01,2013-03-07 21:52:00,
2013-03-07 16:56:00,33.1,30.5,30.02,North,350,0.0,3.0,90,0.01,,---,0.04,19.00,VWS V14.01,2013-03-07 21:56:00,
2013-03-07 16:57:00,33.1,30.5,30.02,North,350,0.0,3.0,90,0.01,,---,0.04,19.00,VWS V14.01,2013-03-07 21:57:00,
2013-03-07 17:01:00,33.1,30.8,30.02,West,280,0.0,3.0,91,0.01,,---,0.04,19.00,VWS V14.01,2013-03-07 22:01:00,
2013-03-07 17:03:00,33.1,30.5,30.02,NNW,345,1.0,3.0,90,0.00,,---,0.04,19.00,VWS V14.01,2013-03-07 22:03:00,
2013-03-07 17:06:00,33.1,30.5,30.03,NNW,344,3.0,3.0,90,0.00,,---,0.04,21.00,VWS V14.01,2013-03-07 22:06:00,
2013-03-07 17:08:00,33.2,30.6,30.02,North,5,4.0,4.0,90,0.00,,---,0.04,19.00,VWS V14.01,2013-03-07 22:08:00,
2013-03-07 17:11:00,33.2,30.3,30.03,North,9,3.0,4.0,89,0.00,,---,0.04,19.00,VWS V14.01,2013-03-07 22:11:00,
2013-03-07 17:12:00,33.2,30.3,30.03,NNE,15,2.0,4.0,89,0.00,,---,0.04,19.00,VWS V14.01,2013-03-07 22:12:00,
2013-03-07 17:13:00,33.2,30.3,30.02,NE,50,0.0,4.0,89,0.00,,---,0.04,18.00,VWS V14.01,2013-03-07 22:13:00,
2013-03-07 17:16:00,33.2,30.3,30.03,North,11,2.0,4.0,89,0.00,,---,0.04,16.00,VWS V14.01,2013-03-07 22:16:00,
2013-03-07 17:17:00,33.2,30.3,30.03,North,11,0.0,4.0,89,0.00,,---,0.04,16.00,VWS V14.01,2013-03-07 22:17:00,
2013-03-07 17:18:00,33.2,30.6,30.03,NNE,32,1.0,4.0,90,0.00,,---,0.04,16.00,VWS V14.01,2013-03-07 22:18:00,
2013-03-07 17:21:00,33.2,30.3,30.03,NNW,328,0.0,4.0,89,0.00,,---,0.04,12.00,VWS V14.01,2013-03-07 22:21:00,
2013-03-07 17:22:00,33.1,30.2,30.03,NNW,330,1.0,4.0,89,0.00,,---,0.04,12.00,VWS V14.01,2013-03-07 22:22:00,
2013-03-07 17:23:00,33.2,30.3,30.03,NNW,338,1.0,1.0,89,0.00,,---,0.04,12.00,VWS V14.01,2013-03-07 22:23:00,
2013-03-07 17:26:00,33.1,30.5,30.03,NNW,338,2.0,2.0,90,0.00,,---,0.04,11.00,VWS V14.01,2013-03-07 22:26:00,
2013-03-07 17:27:00,33.1,30.5,30.03,NNW,338,0.0,2.0,90,0.00,,---,0.04,11.00,VWS V14.01,2013-03-07 22:27:00,
2013-03-07 17:28:00,33.1,30.5,30.03,North,351,1.0,2.0,90,0.00,,---,0.04,11.00,VWS V14.01,2013-03-07 22:28:00,
2013-03-07 17:31:00,33.1,30.5,30.03,SW,222,2.0,4.0,90,0.00,,---,0.04,9.00,VWS V14.01,2013-03-07 22:31:00,
2013-03-07 17:32:00,33.1,30.5,30.03,North,5,3.0,3.0,90,0.00,,---,0.04,9.00,VWS V14.01,2013-03-07 22:32:00,
2013-03-07 17:33:00,33.1,30.5,30.03,NNE,16,1.0,3.0,90,0.00,,---,0.04,7.00,VWS V14.01,2013-03-07 22:33:00,
2013-03-07 17:36:00,33.1,30.2,30.03,North,10,4.0,5.0,89,0.00,,---,0.04,7.00,VWS V14.01,2013-03-07 22:36:00,
2013-03-07 17:37:00,33.1,30.2,30.03,NE,37,0.0,5.0,89,0.00,,---,0.04,5.00,VWS V14.01,2013-03-07 22:37:00,
2013-03-07 17:38:00,33.1,30.2,30.03,NNE,30,1.0,5.0,89,0.00,,---,0.04,5.00,VWS V14.01,2013-03-07 22:38:00,
2013-03-07 17:41:00,33.1,30.2,30.03,West,263,1.0,5.0,89,0.00,,---,0.04,0.00,VWS V14.01,2013-03-07 22:41:00,
2013-03-07 17:42:00,33.1,30.2,30.03,West,263,0.0,0.0,89,0.00,,---,0.04,0.00,VWS V14.01,2013-03-07 22:42:00,
2013-03-07 17:44:00,33.1,30.2,30.03,NNW,346,0.0,6.0,89,0.00,,---,0.04,0.00,VWS V14.01,2013-03-07 22:44:00,
2013-03-07 17:46:00,33.1,30.2,30.03,North,5,3.0,6.0,89,0.00,,---,0.04,0.00,VWS V14.01,2013-03-07 22:46:00,
2013-03-07 17:47:00,33.1,30.2,30.03,North,5,2.0,6.0,89,0.00,,---,0.04,0.00,VWS V14.01,2013-03-07 22:47:00,
2013-03-07 17:49:00,33.1,29.9,30.03,WSW,258,2.0,6.0,88,0.00,,---,0.04,0.00,VWS V14.01,2013-03-07 22:49:00,
2013-03-07 17:52:00,33.1,29.9,30.03,NE,35,1.0,6.0,88,0.00,,---,0.04,0.00,VWS V14.01,2013-03-07 22:52:00,
2013-03-07 17:54:00,33.1,29.9,30.03,NNW,344,0.0,2.0,88,0.00,,---,0.04,0.00,VWS V14.01,2013-03-07 22:54:00,
2013-03-07 17:57:00,33.0,30.1,30.03,NNW,337,1.0,4.0,89,0.00,,---,0.04,0.00,VWS V14.01,2013-03-07 22:57:00,
2013-03-07 17:59:00,33.0,29.8,30.03,North,355,1.0,5.0,88,0.01,,---,0.05,0.00,VWS V14.01,2013-03-07 22:59:00,
2013-03-07 18:02:00,33.0,29.8,30.03,NNW,341,0.0,5.0,88,0.01,,---,0.05,0.00,VWS V14.01,2013-03-07 23:02:00,
2013-03-07 18:04:00,33.0,29.8,30.03,North,360,1.0,2.0,88,0.01,,---,0.05,0.00,VWS V14.01,2013-03-07 23:04:00,
2013-03-07 18:07:00,32.9,29.7,30.03,North,350,2.0,3.0,88,0.01,,---,0.05,0.00,VWS V14.01,2013-03-07 23:07:00,
2013-03-07 18:09:00,32.9,29.7,30.03,NNW,347,0.0,3.0,88,0.01,,---,0.05,0.00,VWS V14.01,2013-03-07 23:09:00,
2013-03-07 18:12:00,32.9,29.7,30.03,North,355,3.0,4.0,88,0.01,,---,0.05,0.00,VWS V14.01,2013-03-07 23:12:00,
2013-03-07 18:14:00,32.9,30.0,30.03,NNW,346,0.0,3.0,89,0.01,,---,0.05,0.00,VWS V14.01,2013-03-07 23:14:00,
2013-03-07 18:17:00,32.9,30.0,30.03,NNW,335,0.0,4.0,89,0.01,,---,0.05,0.00,VWS V14.01,2013-03-07 23:17:00,
2013-03-07 18:19:00,32.8,29.6,30.03,SW,217,3.0,4.0,88,0.01,,---,0.05,0.00,VWS V14.01,2013-03-07 23:19:00,
2013-03-07 18:22:00,32.8,29.9,30.03,NNW,329,0.0,2.0,89,0.01,,---,0.05,0.00,VWS V14.01,2013-03-07 23:22:00,
2013-03-07 18:23:00,32.8,29.9,30.03,NNW,329,0.0,2.0,89,0.01,,---,0.05,0.00,VWS V14.01,2013-03-07 23:23:00,
2013-03-07 18:25:00,32.7,29.8,30.04,West,265,0.0,2.0,89,0.01,,---,0.05,0.00,VWS V14.01,2013-03-07 23:25:00,
2013-03-07 18:27:00,32.7,29.8,30.03,NNW,333,1.0,4.0,89,0.01,,---,0.05,0.00,VWS V14.01,2013-03-07 23:27:00,
2013-03-07 18:28:00,32.7,29.8,30.03,NNW,333,0.0,4.0,89,0.01,,---,0.05,0.00,VWS V14.01,2013-03-07 23:28:00,
2013-03-07 18:30:00,32.7,29.8,30.04,ESE,115,0.0,4.0,89,0.01,,---,0.05,0.00,VWS V14.01,2013-03-07 23:30:00,
2013-03-07 18:33:00,32.6,29.7,30.04,NNW,330,2.0,3.0,89,0.01,,---,0.05,0.00,VWS V14.01,2013-03-07 23:33:00,
2013-03-07 18:35:00,32.6,29.7,30.04,NW,324,1.0,3.0,89,0.01,,---,0.05,0.00,VWS V14.01,2013-03-07 23:35:00,
2013-03-07 18:38:00,32.5,29.9,30.04,North,350,1.0,3.0,90,0.01,,---,0.05,0.00,VWS V14.01,2013-03-07 23:38:00,
2013-03-07 18:40:00,32.5,29.9,30.04,NNW,348,3.0,4.0,90,0.01,,---,0.05,0.00,VWS V14.01,2013-03-07 23:40:00,
2013-03-07 18:43:00,32.5,29.9,30.04,NNW,346,0.0,3.0,90,0.01,,---,0.05,0.00,VWS V14.01,2013-03-07 23:43:00,
2013-03-07 18:45:00,32.5,29.9,30.04,NE,41,0.0,4.0,90,0.01,,---,0.05,0.00,VWS V14.01,2013-03-07 23:45:00,
2013-03-07 18:48:00,32.5,29.9,30.04,NE,37,0.0,4.0,90,0.01,,---,0.05,0.00,VWS V14.01,2013-03-07 23:48:00,
2013-03-07 18:50:00,32.5,29.9,30.04,SSW,195,2.0,4.0,90,0.01,,---,0.05,0.00,VWS V14.01,2013-03-07 23:50:00,
2013-03-07 18:53:00,32.5,29.9,30.04,North,355,0.0,2.0,90,0.01,,---,0.05,0.00,VWS V14.01,2013-03-07 23:53:00,
2013-03-07 18:55:00,32.4,29.8,30.04,North,360,1.0,2.0,90,0.01,,---,0.05,0.00,VWS V14.01,2013-03-07 23:55:00,
2013-03-07 18:58:00,32.4,29.8,30.04,NNW,347,3.0,3.0,90,0.01,,---,0.05,0.00,VWS V14.01,2013-03-07 23:58:00,
2013-03-07 19:00:00,32.4,29.8,30.04,NW,326,0.0,3.0,90,0.01,,---,0.05,0.00,VWS V14.01,2013-03-08 00:00:00,
2013-03-07 19:03:00,32.3,29.7,30.04,NNE,15,2.0,3.0,90,0.00,,---,0.05,0.00,VWS V14.01,2013-03-08 00:03:00,
2013-03-07 19:06:00,32.3,29.7,30.04,East,79,1.0,3.0,90,0.00,,---,0.05,0.00,VWS V14.01,2013-03-08 00:06:00,
2013-03-07 19:08:00,32.3,29.7,30.04,NNW,344,1.0,3.0,90,0.00,,---,0.05,0.00,VWS V14.01,2013-03-08 00:08:00,
2013-03-07 19:11:00,32.3,29.7,30.04,NW,325,0.0,3.0,90,0.00,,---,0.05,0.00,VWS V14.01,2013-03-08 00:11:00,
2013-03-07 19:13:00,32.3,30.0,30.04,WNW,300,2.0,3.0,91,0.00,,---,0.05,0.00,VWS V14.01,2013-03-08 00:13:00,
2013-03-07 19:16:00,32.3,30.0,30.04,North,349,0.0,3.0,91,0.00,,---,0.05,0.00,VWS V14.01,2013-03-08 00:16:00,
2013-03-07 19:18:00,32.2,29.9,30.04,NW,318,0.0,3.0,91,0.00,,---,0.05,0.00,VWS V14.01,2013-03-08 00:18:00,
2013-03-07 19:19:00,32.2,29.9,30.04,NNW,330,2.0,3.0,91,0.00,,---,0.05,0.00,VWS V14.01,2013-03-08 00:19:00,
2013-03-07 19:21:00,32.2,29.9,30.04,NNW,347,2.0,4.0,91,0.00,,---,0.05,0.00,VWS V14.01,2013-03-08 00:21:00,
2013-03-07 19:23:00,32.1,29.8,30.04,NNW,345,1.0,2.0,91,0.00,,---,0.05,0.00,VWS V14.01,2013-03-08 00:23:00,
2013-03-07 19:24:00,32.1,29.8,30.04,NW,314,0.0,3.0,91,0.00,,---,0.05,0.00,VWS V14.01,2013-03-08 00:24:00,
2013-03-07 19:26:00,32.1,29.8,30.04,North,355,1.0,5.0,91,0.00,,---,0.05,0.00,VWS V14.01,2013-03-08 00:26:00,
2013-03-07 19:28:00,32.1,29.8,30.04,NNE,19,0.0,5.0,91,0.00,,---,0.05,0.00,VWS V14.01,2013-03-08 00:28:00,
2013-03-07 19:29:00,32.1,29.8,30.04,NNE,19,1.0,5.0,91,0.00,,---,0.05,0.00,VWS V14.01,2013-03-08 00:29:00,
2013-03-07 19:31:00,32.1,29.8,30.04,NNW,331,0.0,5.0,91,0.00,,---,0.05,0.00,VWS V14.01,2013-03-08 00:31:00,
2013-03-07 19:33:00,32.1,29.8,30.04,NNE,16,1.0,4.0,91,0.00,,---,0.05,0.00,VWS V14.01,2013-03-08 00:33:00,
2013-03-07 19:34:00,32.1,29.8,30.04,NNW,336,1.0,4.0,91,0.00,,---,0.05,0.00,VWS V14.01,2013-03-08 00:34:00,
2013-03-07 19:36:00,32.1,29.8,30.04,West,281,0.0,4.0,91,0.00,,---,0.05,0.00,VWS V14.01,2013-03-08 00:36:00,
2013-03-07 19:38:00,32.1,29.8,30.04,WSW,252,1.0,4.0,91,0.00,,---,0.05,0.00,VWS V14.01,2013-03-08 00:38:00,
2013-03-07 19:39:00,32.1,29.8,30.04,NW,321,1.0,4.0,91,0.00,,---,0.05,0.00,VWS V14.01,2013-03-08 00:39:00,
2013-03-07 19:41:00,32.1,30.0,30.04,East,80,0.0,4.0,92,0.00,,---,0.05,0.00,VWS V14.01,2013-03-08 00:41:00,
2013-03-07 19:43:00,32.0,29.9,30.04,NE,39,1.0,2.0,92,0.00,,---,0.05,0.00,VWS V14.01,2013-03-08 00:43:00,
2013-03-07 19:44:00,32.0,29.9,30.04,NE,39,1.0,2.0,92,0.00,,---,0.05,0.00,VWS V14.01,2013-03-08 00:44:00,
2013-03-07 19:46:00,32.0,29.9,30.04,North,5,1.0,2.0,92,0.00,,---,0.05,0.00,VWS V14.01,2013-03-08 00:46:00,
2013-03-07 19:49:00,31.9,29.8,30.04,North,350,1.0,2.0,92,0.00,,---,0.05,0.00,VWS V14.01,2013-03-08 00:49:00,
2013-03-07 19:51:00,31.9,29.8,30.04,West,272,0.0,3.0,92,0.00,,---,0.05,0.00,VWS V14.01,2013-03-08 00:51:00,
2013-03-07 19:54:00,31.9,29.8,30.04,NW,322,0.0,2.0,92,0.00,,---,0.05,0.00,VWS V14.01,2013-03-08 00:54:00,
2013-03-07 19:56:00,31.9,29.8,30.04,NNW,342,0.0,4.0,92,0.00,,---,0.05,0.00,VWS V14.01,2013-03-08 00:56:00,
2013-03-07 19:59:00,31.9,29.8,30.04,NNW,332,0.0,4.0,92,0.00,,---,0.05,0.00,VWS V14.01,2013-03-08 00:59:00,
2013-03-07 20:02:00,31.9,29.8,30.04,NNW,338,1.0,4.0,92,0.00,,---,0.05,0.00,VWS V14.01,2013-03-08 01:02:00,
2013-03-07 20:04:00,31.9,29.8,30.04,NW,323,0.0,4.0,92,0.00,,---,0.05,0.00,VWS V14.01,2013-03-08 01:04:00,
2013-03-07 20:07:00,31.8,29.8,30.04,North,5,1.0,4.0,92,0.00,,---,0.05,0.00,VWS V14.01,2013-03-08 01:07:00,
2013-03-07 20:09:00,31.8,29.8,30.04,North,10,2.0,4.0,92,0.00,,---,0.05,0.00,VWS V14.01,2013-03-08 01:09:00,
2013-03-07 20:12:00,31.8,29.8,30.04,North,355,2.0,4.0,92,0.00,,---,0.05,0.00,VWS V14.01,2013-03-08 01:12:00,
2013-03-07 20:14:00,31.8,29.8,30.04,NNW,336,1.0,3.0,92,0.00,,---,0.05,0.00,VWS V14.01,2013-03-08 01:14:00,
2013-03-07 20:17:00,31.8,29.8,30.04,North,5,0.0,3.0,92,0.00,,---,0.05,0.00,VWS V14.01,2013-03-08 01:17:00,
2013-03-07 20:19:00,31.8,29.8,30.04,North,5,1.0,3.0,92,0.00,,---,0.05,0.00,VWS V14.01,2013-03-08 01:19:00,
2013-03-07 20:22:00,31.8,30.0,30.04,NW,321,0.0,1.0,93,0.00,,---,0.05,0.00,VWS V14.01,2013-03-08 01:22:00,
2013-03-07 20:24:00,31.7,29.9,30.04,ENE,65,0.0,2.0,93,0.00,,---,0.05,0.00,VWS V14.01,2013-03-08 01:24:00,
2013-03-07 20:25:00,31.7,29.9,30.04,NNW,329,0.0,2.0,93,0.00,,---,0.05,0.00,VWS V14.01,2013-03-08 01:25:00,
2013-03-07 20:27:00,31.7,29.9,30.03,NNW,341,1.0,2.0,93,0.00,,---,0.05,0.00,VWS V14.01,2013-03-08 01:27:00,
2013-03-07 20:30:00,31.7,29.9,30.03,NNW,346,0.0,2.0,93,0.00,,---,0.05,0.00,VWS V14.01,2013-03-08 01:30:00,
2013-03-07 20:32:00,31.7,29.9,30.03,NNW,347,0.0,0.0,93,0.00,,---,0.05,0.00,VWS V14.01,2013-03-08 01:32:00,
2013-03-07 20:35:00,31.7,29.9,30.03,North,355,1.0,3.0,93,0.00,,---,0.05,0.00,VWS V14.01,2013-03-08 01:35:00,
2013-03-07 20:37:00,31.6,29.8,30.03,NNW,334,0.0,3.0,93,0.00,,---,0.05,0.00,VWS V14.01,2013-03-08 01:37:00,
2013-03-07 20:40:00,31.6,29.8,30.03,North,11,0.0,3.0,93,0.00,,---,0.05,0.00,VWS V14.01,2013-03-08 01:40:00,
2013-03-07 20:42:00,31.7,29.9,30.03,North,360,0.0,2.0,93,0.00,,---,0.05,0.00,VWS V14.01,2013-03-08 01:42:00,
2013-03-07 20:45:00,31.6,29.8,30.03,NNW,346,1.0,2.0,93,0.00,,---,0.05,0.00,VWS V14.01,2013-03-08 01:45:00,
2013-03-07 20:47:00,31.6,29.8,30.03,NNW,346,0.0,2.0,93,0.00,,---,0.05,0.00,VWS V14.01,2013-03-08 01:47:00,
2013-03-07 20:50:00,31.6,29.8,30.03,NNW,338,1.0,3.0,93,0.00,,---,0.05,0.00,VWS V14.01,2013-03-08 01:50:00,
2013-03-07 20:53:00,31.6,29.8,30.03,North,360,1.0,2.0,93,0.00,,---,0.05,0.00,VWS V14.01,2013-03-08 01:53:00,
2013-03-07 20:55:00,31.6,29.8,30.03,North,355,0.0,2.0,93,0.00,,---,0.05,0.00,VWS V14.01,2013-03-08 01:55:00,
2013-03-07 20:58:00,31.6,29.8,30.03,NNW,334,0.0,2.0,93,0.00,,---,0.05,0.00,VWS V14.01,2013-03-08 01:58:00,
2013-03-07 21:00:00,31.6,29.8,30.03,North,355,1.0,2.0,93,0.00,,---,0.05,0.00,VWS V14.01,2013-03-08 02:00:00,
2013-03-07 21:03:00,31.6,29.8,30.03,NNE,24,1.0,1.0,93,0.00,,---,0.05,0.00,VWS V14.01,2013-03-08 02:03:00,
2013-03-07 21:05:00,31.6,29.8,30.03,NE,51,0.0,1.0,93,0.00,,---,0.05,0.00,VWS V14.01,2013-03-08 02:05:00,
2013-03-07 21:08:00,31.6,29.8,30.03,NE,36,0.0,1.0,93,0.00,,---,0.05,0.00,VWS V14.01,2013-03-08 02:08:00,
2013-03-07 21:10:00,31.5,29.7,30.03,NE,36,0.0,1.0,93,0.00,,---,0.05,0.00,VWS V14.01,2013-03-08 02:10:00,
2013-03-07 21:13:00,31.5,29.7,30.02,North,360,0.0,1.0,93,0.00,,---,0.05,0.00,VWS V14.01,2013-03-08 02:13:00,
2013-03-07 21:15:00,31.5,29.7,30.02,NW,310,0.0,1.0,93,0.00,,---,0.05,0.00,VWS V14.01,2013-03-08 02:15:00,
2013-03-07 21:18:00,31.5,30.0,30.02,NNW,333,0.0,1.0,94,0.00,,---,0.05,0.00,VWS V14.01,2013-03-08 02:18:00,
2013-03-07 21:20:00,31.5,30.0,30.02,NNE,28,0.0,1.0,94,0.00,,---,0.05,0.00,VWS V14.01,2013-03-08 02:20:00,
2013-03-07 21:23:00,31.5,30.0,30.02,NNE,19,0.0,0.0,94,0.00,,---,0.05,0.00,VWS V14.01,2013-03-08 02:23:00,
2013-03-07 21:25:00,31.4,29.9,30.02,WSW,258,1.0,2.0,94,0.00,,---,0.05,0.00,VWS V14.01,2013-03-08 02:25:00,
2013-03-07 21:26:00,31.5,30.0,30.02,WSW,256,0.0,2.0,94,0.00,,---,0.05,0.00,VWS V14.01,2013-03-08 02:26:00,
2013-03-07 21:28:00,31.5,30.0,30.02,NNW,327,0.0,2.0,94,0.00,,---,0.05,0.00,VWS V14.01,2013-03-08 02:28:00,
2013-03-07 21:30:00,31.5,30.0,30.02,WNW,294,0.0,2.0,94,0.00,,---,0.05,0.00,VWS V14.01,2013-03-08 02:30:00,
2013-03-07 21:31:00,31.5,30.0,30.02,NNW,335,1.0,2.0,94,0.00,,---,0.05,0.00,VWS V14.01,2013-03-08 02:31:00,
2013-03-07 21:33:00,31.5,30.0,30.02,NNW,334,0.0,1.0,94,0.00,,---,0.05,0.00,VWS V14.01,2013-03-08 02:33:00,
2013-03-07 21:35:00,31.5,30.0,30.02,NNW,334,0.0,1.0,94,0.00,,---,0.05,0.00,VWS V14.01,2013-03-08 02:35:00,
2013-03-07 21:36:00,31.5,30.0,30.02,NNW,334,0.0,1.0,94,0.00,,---,0.05,0.00,VWS V14.01,2013-03-08 02:36:00,
2013-03-07 21:38:00,31.4,29.9,30.02,WNW,298,0.0,1.0,94,0.00,,---,0.05,0.00,VWS V14.01,2013-03-08 02:38:00,
2013-03-07 21:40:00,31.4,29.9,30.02,NNW,344,0.0,1.0,94,0.00,,---,0.05,0.00,VWS V14.01,2013-03-08 02:40:00,
2013-03-07 21:41:00,31.4,29.9,30.02,NNW,344,0.0,1.0,94,0.00,,---,0.05,0.00,VWS V14.01,2013-03-08 02:41:00,
2013-03-07 21:43:00,31.4,29.9,30.02,NNW,333,0.0,3.0,94,0.00,,---,0.05,0.00,VWS V14.01,2013-03-08 02:43:00,
2013-03-07 21:45:00,31.4,29.9,30.02,NNW,348,0.0,3.0,94,0.00,,---,0.05,0.00,VWS V14.01,2013-03-08 02:45:00,
2013-03-07 21:46:00,31.5,30.0,30.02,NNW,346,0.0,3.0,94,0.00,,---,0.05,0.00,VWS V14.01,2013-03-08 02:46:00,
2013-03-07 21:48:00,31.4,29.9,30.02,North,355,0.0,3.0,94,0.00,,---,0.05,0.00,VWS V14.01,2013-03-08 02:48:00,
2013-03-07 21:50:00,31.4,29.9,30.02,NNW,340,0.0,3.0,94,0.00,,---,0.05,0.00,VWS V14.01,2013-03-08 02:50:00,
2013-03-07 21:51:00,31.4,29.9,30.01,NW,313,0.0,3.0,94,0.00,,---,0.05,0.00,VWS V14.01,2013-03-08 02:51:00,
2013-03-07 21:53:00,31.4,29.9,30.01,NW,313,0.0,0.0,94,0.00,,---,0.05,0.00,VWS V14.01,2013-03-08 02:53:00,
2013-03-07 21:55:00,31.4,29.9,30.01,North,355,0.0,0.0,94,0.00,,---,0.05,0.00,VWS V14.01,2013-03-08 02:55:00,
2013-03-07 21:56:00,31.4,29.9,30.02,NNW,342,0.0,0.0,94,0.00,,---,0.05,0.00,VWS V14.01,2013-03-08 02:56:00,
2013-03-07 21:58:00,31.4,29.9,30.01,NNW,342,0.0,0.0,94,0.00,,---,0.05,0.00,VWS V14.01,2013-03-08 02:58:00,
2013-03-07 22:00:00,31.4,29.9,30.02,NNW,343,0.0,0.0,94,0.00,,---,0.05,0.00,VWS V14.01,2013-03-08 03:00:00,
2013-03-07 22:01:00,31.4,29.9,30.02,NNW,343,0.0,0.0,94,0.00,,---,0.05,0.00,VWS V14.01,2013-03-08 03:01:00,
2013-03-07 22:04:00,31.4,29.9,30.02,NNW,343,0.0,0.0,94,0.00,,---,0.05,0.00,VWS V14.01,2013-03-08 03:04:00,
2013-03-07 22:05:00,31.4,29.9,30.02,NNW,343,0.0,0.0,94,0.00,,---,0.05,0.00,VWS V14.01,2013-03-08 03:05:00,
2013-03-07 22:06:00,31.4,29.9,30.01,NNW,343,0.0,0.0,94,0.00,,---,0.05,0.00,VWS V14.01,2013-03-08 03:06:00,
2013-03-07 22:09:00,31.4,29.9,30.02,NNW,343,0.0,0.0,94,0.00,,---,0.05,0.00,VWS V14.01,2013-03-08 03:09:00,
2013-03-07 22:11:00,31.4,29.9,30.02,NNW,343,0.0,0.0,94,0.00,,---,0.05,0.00,VWS V14.01,2013-03-08 03:11:00,
2013-03-07 22:14:00,31.4,29.9,30.01,NNW,345,0.0,0.0,94,0.00,,---,0.05,0.00,VWS V14.01,2013-03-08 03:14:00,
2013-03-07 22:16:00,31.4,29.9,30.01,NNE,13,0.0,0.0,94,0.00,,---,0.05,0.00,VWS V14.01,2013-03-08 03:16:00,
2013-03-07 22:19:00,31.4,29.9,30.02,NNE,26,0.0,0.0,94,0.00,,---,0.05,0.00,VWS V14.01,2013-03-08 03:19:00,
2013-03-07 22:21:00,31.4,29.9,30.01,NNE,26,0.0,0.0,94,0.00,,---,0.05,0.00,VWS V14.01,2013-03-08 03:21:00,
2013-03-07 22:24:00,31.4,29.9,30.01,NNW,347,0.0,0.0,94,0.00,,---,0.05,0.00,VWS V14.01,2013-03-08 03:24:00,
2013-03-07 22:26:00,31.4,29.9,30.02,NE,54,0.0,0.0,94,0.00,,---,0.05,0.00,VWS V14.01,2013-03-08 03:26:00,
2013-03-07 22:29:00,31.4,29.9,30.02,NNW,339,0.0,0.0,94,0.00,,---,0.05,0.00,VWS V14.01,2013-03-08 03:29:00,
2013-03-07 22:31:00,31.3,29.8,30.02,NNW,347,0.0,0.0,94,0.00,,---,0.05,0.00,VWS V14.01,2013-03-08 03:31:00,
2013-03-07 22:34:00,31.3,29.8,30.02,NW,323,0.0,0.0,94,0.00,,---,0.05,0.00,VWS V14.01,2013-03-08 03:34:00,
2013-03-07 22:36:00,31.3,29.8,30.02,NW,323,0.0,0.0,94,0.00,,---,0.05,0.00,VWS V14.01,2013-03-08 03:36:00,
2013-03-07 22:37:00,31.3,29.8,30.02,NNW,336,0.0,0.0,94,0.00,,---,0.05,0.00,VWS V14.01,2013-03-08 03:37:00,
2013-03-07 22:39:00,31.3,29.8,30.01,NNE,25,0.0,0.0,94,0.00,,---,0.05,0.00,VWS V14.01,2013-03-08 03:39:00,
2013-03-07 22:41:00,31.3,29.8,30.02,NNE,25,0.0,0.0,94,0.00,,---,0.05,0.00,VWS V14.01,2013-03-08 03:41:00,
2013-03-07 22:42:00,31.3,29.8,30.01,NNE,25,0.0,0.0,94,0.00,,---,0.05,0.00,VWS V14.01,2013-03-08 03:42:00,
2013-03-07 22:44:00,31.3,29.8,30.01,NW,324,0.0,0.0,94,0.00,,---,0.05,0.00,VWS V14.01,2013-03-08 03:44:00,
2013-03-07 22:46:00,31.3,30.0,30.01,West,261,0.0,0.0,95,0.00,,---,0.05,0.00,VWS V14.01,2013-03-08 03:46:00,
2013-03-07 22:47:00,31.3,30.0,30.01,West,268,0.0,0.0,95,0.00,,---,0.05,0.00,VWS V14.01,2013-03-08 03:47:00,
2013-03-07 22:49:00,31.3,30.0,30.01,NW,308,0.0,0.0,95,0.00,,---,0.05,0.00,VWS V14.01,2013-03-08 03:49:00,
2013-03-07 22:51:00,31.3,29.8,30.01,NW,308,0.0,0.0,94,0.00,,---,0.05,0.00,VWS V14.01,2013-03-08 03:51:00,
2013-03-07 22:52:00,31.3,29.8,30.01,WSW,248,0.0,0.0,94,0.00,,---,0.05,0.00,VWS V14.01,2013-03-08 03:52:00,
2013-03-07 22:54:00,31.3,29.8,30.01,NW,309,0.0,0.0,94,0.00,,---,0.05,0.00,VWS V14.01,2013-03-08 03:54:00,
2013-03-07 22:56:00,31.3,29.8,30.01,NW,309,0.0,0.0,94,0.00,,---,0.05,0.00,VWS V14.01,2013-03-08 03:56:00,
2013-03-07 22:57:00,31.3,29.8,30.01,NW,309,0.0,0.0,94,0.00,,---,0.05,0.00,VWS V14.01,2013-03-08 03:57:00,
2013-03-07 22:59:00,31.3,29.8,30.01,NW,314,0.0,0.0,94,0.00,,---,0.05,0.00,VWS V14.01,2013-03-08 03:59:00,
2013-03-07 23:01:00,31.3,30.0,30.01,NW,313,0.0,0.0,95,0.00,,---,0.05,0.00,VWS V14.01,2013-03-08 04:01:00,
2013-03-07 23:02:00,31.3,30.0,30.01,NW,313,0.0,0.0,95,0.00,,---,0.05,0.00,VWS V14.01,2013-03-08 04:02:00,
2013-03-07 23:04:00,31.3,30.0,30.01,NW,313,0.0,0.0,95,0.00,,---,0.05,0.00,VWS V14.01,2013-03-08 04:04:00,
2013-03-07 23:06:00,31.3,30.0,30.01,NW,313,0.0,0.0,95,0.00,,---,0.05,0.00,VWS V14.01,2013-03-08 04:06:00,
2013-03-07 23:07:00,31.3,30.0,30.01,NW,313,0.0,0.0,95,0.00,,---,0.05,0.00,VWS V14.01,2013-03-08 04:07:00,
2013-03-07 23:09:00,31.3,30.0,30.01,NW,325,0.0,0.0,95,0.00,,---,0.05,0.00,VWS V14.01,2013-03-08 04:09:00,
2013-03-07 23:11:00,31.3,30.0,30.01,NW,325,0.0,0.0,95,0.00,,---,0.05,0.00,VWS V14.01,2013-03-08 04:11:00,
2013-03-07 23:12:00,31.3,30.0,30.01,NNE,33,0.0,0.0,95,0.00,,---,0.05,0.00,VWS V14.01,2013-03-08 04:12:00,
2013-03-07 23:14:00,31.3,30.0,30.01,NNE,33,0.0,0.0,95,0.00,,---,0.05,0.00,VWS V14.01,2013-03-08 04:14:00,
2013-03-07 23:16:00,31.3,30.0,30.01,NNE,33,0.0,0.0,95,0.00,,---,0.05,0.00,VWS V14.01,2013-03-08 04:16:00,
2013-03-07 23:18:00,31.3,30.0,30.01,NNE,33,0.0,0.0,95,0.00,,---,0.05,0.00,VWS V14.01,2013-03-08 04:18:00,
2013-03-07 23:19:00,31.3,30.0,30.01,NNE,33,0.0,0.0,95,0.00,,---,0.05,0.00,VWS V14.01,2013-03-08 04:19:00,
2013-03-07 23:22:00,31.3,30.0,30.01,ESE,119,0.0,0.0,95,0.00,,---,0.05,0.00,VWS V14.01,2013-03-08 04:22:00,
2013-03-07 23:23:00,31.3,30.0,30.01,South,184,0.0,0.0,95,0.00,,---,0.05,0.00,VWS V14.01,2013-03-08 04:23:00,
2013-03-07 23:24:00,31.3,30.0,30.01,North,5,0.0,0.0,95,0.00,,---,0.05,0.00,VWS V14.01,2013-03-08 04:24:00,
2013-03-07 23:27:00,31.3,30.0,30.01,North,360,0.0,0.0,95,0.00,,---,0.05,0.00,VWS V14.01,2013-03-08 04:27:00,
2013-03-07 23:28:00,31.3,30.0,30.01,North,360,0.0,0.0,95,0.00,,---,0.05,0.00,VWS V14.01,2013-03-08 04:28:00,
2013-03-07 23:29:00,31.3,30.0,30.01,North,360,0.0,0.0,95,0.00,,---,0.05,0.00,VWS V14.01,2013-03-08 04:29:00,
2013-03-07 23:32:00,31.2,29.9,30.01,North,360,0.0,0.0,95,0.00,,---,0.05,0.00,VWS V14.01,2013-03-08 04:32:00,
2013-03-07 23:33:00,31.2,29.9,30.01,North,360,0.0,0.0,95,0.00,,---,0.05,0.00,VWS V14.01,2013-03-08 04:33:00,
2013-03-07 23:35:00,31.3,30.0,30.01,North,360,0.0,0.0,95,0.00,,---,0.05,0.00,VWS V14.01,2013-03-08 04:35:00,
2013-03-07 23:37:00,31.2,29.9,30.01,West,274,0.0,0.0,95,0.00,,---,0.05,0.00,VWS V14.01,2013-03-08 04:37:00,
2013-03-07 23:38:00,31.2,29.9,30.00,West,274,0.0,0.0,95,0.00,,---,0.05,0.00,VWS V14.01,2013-03-08 04:38:00,
2013-03-07 23:40:00,31.3,30.0,30.00,West,274,0.0,0.0,95,0.00,,---,0.05,0.00,VWS V14.01,2013-03-08 04:40:00,
2013-03-07 23:42:00,31.2,29.9,30.01,NW,325,0.0,0.0,95,0.00,,---,0.05,0.00,VWS V14.01,2013-03-08 04:42:00,
2013-03-07 23:43:00,31.2,29.9,30.01,NW,325,0.0,0.0,95,0.00,,---,0.05,0.00,VWS V14.01,2013-03-08 04:43:00,
2013-03-07 23:45:00,31.2,29.9,30.01,West,278,0.0,0.0,95,0.00,,---,0.05,0.00,VWS V14.01,2013-03-08 04:45:00,
2013-03-07 23:47:00,31.2,29.9,30.01,WNW,295,0.0,0.0,95,0.00,,---,0.05,0.00,VWS V14.01,2013-03-08 04:47:00,
2013-03-07 23:48:00,31.2,29.9,30.00,NW,317,0.0,0.0,95,0.00,,---,0.05,0.00,VWS V14.01,2013-03-08 04:48:00,
2013-03-07 23:50:00,31.2,29.9,30.01,NW,317,0.0,0.0,95,0.00,,---,0.05,0.00,VWS V14.01,2013-03-08 04:50:00,
2013-03-07 23:52:00,31.2,29.9,30.01,NW,317,0.0,0.0,95,0.00,,---,0.05,0.00,VWS V14.01,2013-03-08 04:52:00,
2013-03-07 23:53:00,31.2,29.9,30.01,NW,317,0.0,0.0,95,0.00,,---,0.05,0.00,VWS V14.01,2013-03-08 04:53:00,
2013-03-07 23:55:00,31.2,29.9,30.01,NW,317,0.0,0.0,95,0.00,,---,0.05,0.00,VWS V14.01,2013-03-08 04:55:00,
2013-03-07 23:57:00,31.2,29.9,30.01,NW,317,0.0,0.0,95,0.00,,---,0.05,0.00,VWS V14.01,2013-03-08 04:57:00,
2013-03-07 23:59:00,31.2,29.9,30.01,ENE,77,0.0,0.0,95,0.00,,---,0.05,0.00,VWS V14.01,2013-03-08 04:59:00,